[{"header": {"dx": 0.06612293990616946, "dy": 0.0552356325346848, "nx": 98, "ny": 59, "la1": 35.046912555036876, "la2": 31.78801023549047, "lo1": -121.43107172385933, "lo2": -114.95102361305473, "refTime": "2026040901", "parameterCategory": 1, "parameterNumber": 2}, "data": [8.73, 8.94, 8.94, 8.94, 9.3, 9.3, 9.02, 9.02, 9.37, 9.94, 9.37, 8.65, 9.05, 8.55, 8.3, 8.14, 7.85, 7.55, 8.05, 7.6, 7.6, 8.05, 8.94, 8.9, 5.58, 0.0, -0.88, -1.7, -1.7, -0.81, -0.96, 0.0, 0.0, 0.98, 2.68, 3.48, 4.11, 4.43, 5.15, 5.82, 6.08, 6.79, 8.37, 9.3, 10.99, 12.26, 14.13, 14.76, 14.74, 13.49, 11.6, 10.01, 9.75, 9.54, 10.16, 10.28, 10.73, 10.73, 10.7, 11.15, 11.06, 11.06, 11.06, 11.06, 11.59, 11.6, 11.6, 12.04, 11.52, 11.52, 11.6, 11.6, 11.59, 11.15, 10.25, 9.8, 9.36, 8.94, 8.94, 8.49, 7.11, 6.02, 4.6, 3.93, 2.97, 2.6, 3.16, 4.11, 4.43, 3.47, 2.47, 1.72, 2.64, 2.64, 3.33, 4.29, 5.15, 4.81, 8.73, 8.94, 9.21, 8.94, 8.94, 9.3, 9.3, 9.37, 9.37, 9.37, 8.73, 9.0, 8.67, 8.8, 9.63, 8.6, 6.98, 7.94, 7.5, 6.94, 7.94, 7.5, 7.97, 8.85, 5.82, 0.96, -0.88, -1.84, -1.84, -1.7, -1.7, -0.96, 0.0, 0.87, 2.0, 3.48, 4.43, 5.15, 5.06, 5.77, 6.39, 7.47, 8.75, 9.85, 11.82, 12.72, 13.74, 13.46, 12.52, 10.87, 9.49, 8.82, 9.54, 9.72, 10.18, 10.7, 10.73, 11.18, 11.18, 11.15, 11.15, 11.15, 11.15, 11.62, 11.62, 11.62, 11.6, 12.04, 12.04, 12.04, 11.6, 11.6, 11.6, 11.18, 10.73, 9.83, 9.39, 8.94, 8.94, 8.49, 7.11, 6.02, 4.6, 3.93, 2.97, 2.6, 3.16, 4.11, 4.43, 3.47, 2.47, 1.72, 2.64, 2.64, 3.33, 4.29, 5.15, 4.81, 8.73, 8.94, 9.21, 8.94, 8.94, 9.3, 9.3, 9.37, 9.37, 9.02, 8.15, 6.92, 8.38, 9.05, 8.55, 7.89, 7.71, 7.63, 7.53, 7.63, 6.7, 7.63, 7.63, 7.63, 5.59, 0.82, -0.82, -1.72, -1.72, -1.72, -1.72, -1.84, -0.81, 0.0, 1.66, 3.76, 4.29, 4.95, 5.59, 5.76, 7.22, 8.49, 10.34, 12.01, 12.64, 12.72, 12.16, 10.63, 9.27, 8.82, 8.56, 8.63, 9.06, 9.7, 9.74, 10.7, 10.73, 11.18, 11.18, 11.18, 11.18, 11.18, 11.18, 11.62, 11.62, 11.62, 12.07, 12.04, 12.04, 12.04, 11.6, 11.62, 11.62, 11.18, 10.73, 10.28, 9.39, 9.39, 8.91, 8.36, 6.79, 5.43, 4.19, 2.97, 1.9, 2.07, 3.07, 3.63, 2.6, 1.6, 0.82, 0.82, 1.84, 2.6, 3.63, 4.11, 4.84, 4.84, 9.01, 9.21, 9.21, 9.21, 8.94, 8.94, 9.3, 9.37, 9.37, 8.78, 7.55, 6.95, 8.31, 8.32, 8.43, 8.4, 8.4, 8.4, 7.76, 7.35, 7.21, 8.06, 7.6, 7.76, 6.18, 2.49, -0.83, -1.72, -1.72, -1.63, -1.63, -1.73, -0.83, 0.0, 2.49, 3.91, 4.71, 6.01, 6.31, 6.87, 8.84, 10.15, 10.89, 10.98, 11.14, 10.58, 9.67, 8.95, 8.56, 8.33, 8.19, 9.06, 9.06, 9.7, 9.7, 10.25, 10.73, 11.18, 11.18, 11.18, 11.62, 11.62, 11.62, 11.62, 11.62, 11.6, 11.6, 11.53, 11.54, 11.54, 11.6, 11.18, 11.18, 10.73, 10.28, 9.81, 9.36, 9.26, 8.8, 8.14, 6.54, 4.81, 4.0, 1.9, 1.66, 1.7, 2.4, 1.7, 0.88, 0.88, 0.81, 0.96, 1.66, 2.95, 3.48, 4.19, 4.19, 4.19, 9.01, 9.21, 9.21, 8.94, 8.94, 8.94, 9.02, 9.37, 9.37, 8.78, 7.27, 6.34, 7.27, 7.76, 8.05, 8.06, 8.3, 8.05, 7.44, 7.42, 7.07, 7.6, 7.6, 8.22, 7.42, 3.91, 0.0, -1.25, -1.25, -0.79, -0.84, -0.8, 0.0, 0.0, 2.39, 3.61, 4.8, 6.16, 7.25, 7.82, 8.61, 9.6, 9.8, 9.62, 9.67, 9.27, 8.95, 9.06, 8.63, 9.24, 9.24, 9.26, 9.7, 9.7, 9.7, 10.25, 10.73, 11.18, 11.62, 11.62, 11.62, 11.62, 11.18, 11.15, 11.15, 11.59, 11.59, 11.51, 11.51, 11.51, 11.06, 11.15, 10.26, 10.28, 9.83, 8.94, 9.36, 8.8, 7.21, 7.06, 5.69, 4.6, 3.13, 0.79, 0.81, 0.81, 1.55, 0.81, -0.0, -0.0, -0.0, 0.98, 1.8, 2.41, 3.16, 3.48, 3.48, 2.53, 9.01, 9.21, 9.21, 8.94, 8.94, 8.94, 9.37, 9.37, 9.37, 8.78, 7.27, 5.71, 6.64, 7.81, 7.81, 8.05, 8.06, 7.76, 8.06, 7.35, 6.95, 5.89, 6.01, 6.32, 7.21, 4.96, 0.0, 0.0, 0.0, 0.0, 0.0, 0.0, 0.81, 1.62, 2.21, 3.02, 3.85, 6.33, 7.79, 7.13, 6.43, 6.7, 7.9, 9.04, 9.65, 9.2, 8.95, 9.24, 9.33, 9.54, 9.54, 9.54, 9.7, 9.7, 10.16, 10.7, 10.73, 11.18, 11.62, 11.62, 11.62, 11.18, 11.15, 11.15, 11.15, 11.15, 11.15, 10.62, 11.06, 11.06, 10.6, 10.45, 10.45, 10.45, 10.16, 9.39, 8.49, 7.55, 6.02, 5.82, 4.6, 3.13, 0.87, -0.0, -0.0, -0.0, -0.0, -0.0, -0.98, -0.0, -0.0, 0.99, 1.98, 2.84, 2.68, 2.68, 1.66, 1.83, 9.01, 9.21, 9.21, 9.21, 8.94, 8.94, 9.37, 9.37, 9.37, 8.45, 6.34, 4.47, 6.39, 7.44, 9.2, 8.05, 8.43, 8.79, 8.3, 7.94, 7.59, 7.48, 6.42, 5.06, 5.98, 3.7, 1.16, 0.0, -1.16, -0.85, 0.0, 0.0, 1.67, 3.21, 3.78, 3.69, 4.01, 5.86, 5.92, 5.0, 4.72, 4.8, 5.92, 7.27, 8.49, 8.67, 8.67, 9.03, 9.36, 10.18, 10.18, 9.54, 9.97, 10.16, 10.6, 10.62, 11.15, 11.15, 11.62, 12.07, 11.62, 11.18, 11.18, 10.73, 10.7, 10.7, 10.7, 10.7, 10.6, 10.6, 10.45, 10.25, 10.32, 11.36, 11.06, 10.25, 8.49, 7.15, 5.75, 2.54, 1.79, -0.99, -1.8, -1.6, -1.74, -1.49, -1.74, -1.74, -2.21, -1.0, -0.0, 1.0, 0.99, 1.8, 1.66, 1.83, 0.81, 0.81, 9.01, 9.21, 9.21, 9.21, 8.94, 8.94, 9.37, 9.37, 9.08, 7.86, 5.44, 3.45, 5.24, 7.51, 9.1, 7.92, 8.88, 9.67, 9.56, 8.65, 8.68, 8.93, 9.67, 8.65, 7.59, 4.96, 1.14, 0.0, -1.26, -1.16, 0.0, 0.0, 1.18, 3.53, 4.5, 4.4, 4.23, 4.71, 4.96, 4.4, 4.6, 4.6, 4.8, 5.69, 5.72, 6.01, 7.41, 8.06, 9.03, 9.8, 8.82, 9.33, 9.75, 10.45, 10.45, 11.06, 11.06, 11.06, 11.6, 11.6, 11.59, 10.73, 10.73, 10.73, 10.73, 10.73, 10.7, 10.25, 10.16, 10.45, 10.25, 10.45, 11.06, 11.59, 11.6, 10.73, 9.83, 8.05, 6.71, 3.13, -3.47, -4.4, -4.15, -3.2, -3.04, -3.13, -3.13, -3.58, -2.24, -1.34, 0.45, -0.0, -0.0, -0.0, 0.81, 0.88, 0.88, 1.7, 8.65, 9.21, 9.21, 9.21, 8.94, 8.94, 9.37, 9.37, 9.08, 7.27, 4.83, 3.2, 4.6, 6.0, 7.78, 8.31, 8.64, 9.66, 9.67, 8.38, 7.81, 9.1, 10.4, 11.02, 10.28, 9.1, 3.45, 0.0, -1.26, 0.0, 0.0, 0.0, 1.13, 2.37, 3.91, 4.01, 4.8, 3.52, 2.49, 2.49, 2.46, 3.61, 4.6, 4.66, 4.71, 4.03, 5.72, 6.87, 7.41, 8.43, 9.6, 8.95, 9.49, 10.25, 10.25, 10.68, 10.93, 10.93, 11.36, 11.51, 11.06, 10.7, 10.25, 10.28, 10.28, 10.28, 10.6, 10.45, 10.02, 10.45, 10.45, 10.63, 11.62, 11.62, 11.62, 11.6, 10.25, 8.9, 8.01, 5.31, -0.0, -5.77, -4.92, -4.02, -4.02, -3.95, -3.95, -3.9, -2.6, -0.8, 0.45, -0.0, -0.0, -0.0, -0.0, 0.82, 0.82, 1.6, 8.65, 9.21, 9.21, 9.21, 8.94, 8.94, 9.02, 9.37, 8.5, 7.27, 5.09, 4.44, 5.32, 5.67, 7.03, 7.19, 8.59, 8.45, 7.96, 6.7, 5.64, 6.97, 7.95, 9.42, 9.88, 9.3, 6.63, 1.32, 0.0, 0.0, 1.14, 1.11, 1.11, 1.18, 1.18, 2.39, 2.33, 1.83, 1.79, 1.79, 0.81, 2.44, 3.88, 4.12, 4.03, 4.26, 4.83, 4.95, 6.79, 7.44, 7.67, 8.05, 9.03, 9.49, 9.9, 10.68, 10.68, 11.18, 11.18, 11.18, 10.93, 10.02, 10.22, 8.49, 8.9, 9.11, 9.75, 9.6, 9.18, 10.02, 10.7, 11.18, 11.99, 12.33, 12.18, 11.42, 10.45, 9.54, 7.76, 6.21, 4.46, 2.2, -4.92, -4.41, -4.4, -4.4, -4.4, -3.16, -1.74, 0.89, -0.0, -0.0, -0.0, -0.0, -0.0, 0.78, 0.78, 1.72, 8.65, 9.01, 9.21, 9.21, 8.94, 8.94, 9.02, 9.37, 8.5, 7.27, 5.72, 5.72, 6.98, 7.33, 7.63, 7.25, 7.74, 6.29, 6.06, 5.0, 6.4, 6.73, 7.36, 8.45, 9.87, 8.24, 7.27, 3.68, 1.14, 0.0, 1.2, 1.75, 1.67, 0.94, 1.7, 1.3, 1.41, 1.79, 0.99, 2.53, 2.68, 1.84, 2.35, 3.45, 4.66, 4.26, 4.95, 5.37, 5.77, 6.82, 7.42, 8.0, 8.4, 8.95, 9.49, 9.9, 10.43, 10.55, 10.68, 10.55, 10.43, 9.49, 7.6, 7.21, 7.42, 7.69, 8.06, 8.67, 8.95, 9.7, 10.73, 11.42, 11.8, 11.99, 11.99, 11.47, 10.27, 9.49, 7.89, 5.75, 4.29, 5.94, 5.72, -3.6, -3.84, -3.84, -3.16, -2.0, -0.0, 0.7, 1.41, 1.73, 0.74, -0.0, -0.0, -0.0, 0.78, 1.72, 8.65, 8.65, 9.21, 9.21, 8.94, 8.94, 9.02, 9.37, 8.78, 7.27, 6.35, 6.08, 7.61, 8.85, 9.08, 9.02, 7.86, 7.3, 6.71, 6.07, 5.69, 5.45, 5.7, 8.68, 8.38, 8.61, 8.85, 4.59, 4.58, 1.3, 0.0, 1.63, 1.84, 1.98, 0.95, 1.0, 1.9, 2.41, 3.58, 4.22, 4.57, 2.97, 1.63, 2.28, 3.52, 4.26, 4.75, 5.37, 5.93, 6.52, 6.8, 7.35, 7.89, 8.3, 8.3, 8.63, 9.06, 9.54, 9.49, 8.63, 7.12, 4.92, 4.11, 4.83, 5.76, 5.9, 6.7, 7.18, 8.42, 8.82, 9.15, 9.36, 9.45, 9.66, 9.66, 9.67, 9.05, 8.05, 6.07, 4.81, 5.49, 6.64, 7.41, 4.02, 1.26, 0.0, 0.89, 0.76, 1.47, 1.45, 2.18, 2.82, 2.06, 0.83, -0.0, -0.0, -0.0, 0.82, 8.65, 8.65, 9.01, 9.21, 9.3, 9.3, 9.3, 9.37, 8.78, 7.59, 6.69, 6.98, 7.61, 9.17, 10.3, 11.62, 11.36, 10.3, 8.84, 7.23, 7.23, 7.17, 7.73, 7.52, 7.6, 7.81, 7.89, 8.67, 8.79, 6.17, 6.51, 4.6, 3.22, 2.0, -0.0, -0.0, 1.6, 2.68, 3.93, 4.57, 4.85, 4.02, 2.68, 1.55, 2.21, 2.4, 3.4, 4.75, 4.74, 5.75, 6.0, 6.94, 7.47, 6.98, 6.71, 5.64, 6.14, 7.15, 5.09, 0.99, -0.0, 0.82, 3.27, 4.0, 3.88, 4.07, 5.41, 6.2, 6.7, 7.27, 7.68, 6.16, 4.54, 4.12, 5.76, 6.53, 6.73, 5.43, 5.16, 5.3, 6.64, 7.69, 7.85, 8.0, 7.21, 6.02, 4.19, 1.6, 1.45, 1.55, 2.26, 2.9, 3.09, 1.63, -0.0, -0.0, -0.0, 0.81, 8.65, 8.65, 9.01, 9.21, 9.3, 9.3, 9.3, 9.02, 8.45, 7.59, 7.3, 7.6, 7.93, 9.17, 10.69, 12.37, 13.09, 12.95, 11.6, 10.16, 8.96, 8.96, 9.8, 10.49, 11.28, 11.42, 11.95, 12.4, 13.36, 12.5, 10.23, 9.7, 6.71, 2.97, 0.99, 0.87, 1.6, 2.95, 4.22, 4.85, 4.92, 4.92, 3.72, 2.49, 2.33, 2.46, 3.33, 4.11, 4.8, 5.2, 5.7, 6.64, 6.58, 4.47, 3.16, 2.41, 4.09, 5.64, 3.13, -2.4, -1.73, 1.2, 2.58, 3.7, 3.15, 3.15, 3.8, 4.37, 5.98, 6.53, 7.27, 4.11, 0.0, 0.0, 1.73, 2.8, 3.58, 5.09, 5.69, 7.35, 8.06, 8.4, 8.25, 8.48, 7.73, 7.35, 4.43, 1.6, 1.52, 1.52, 2.2, 2.12, 2.9, 3.2, 1.41, -0.0, -0.0, -0.0, 8.65, 8.65, 9.01, 9.21, 9.21, 9.3, 9.3, 8.94, 8.45, 7.86, 7.3, 7.9, 8.53, 9.17, 10.36, 11.58, 13.01, 13.9, 13.23, 12.28, 11.2, 10.91, 11.21, 11.87, 12.94, 13.44, 14.0, 14.57, 14.57, 14.65, 13.75, 11.05, 10.04, 5.81, 3.6, 1.41, 2.6, 3.35, 5.2, 4.92, 5.36, 6.14, 5.2, 3.79, 2.8, 1.41, 1.9, 2.21, 4.0, 4.02, 4.92, 5.36, 4.24, 1.41, 1.41, 2.84, 4.02, 5.16, 5.75, 3.79, 0.84, 2.21, 3.6, 3.91, 3.91, 3.68, 3.68, 5.37, 5.93, 7.44, 6.44, 3.39, -1.8, -2.4, 0.0, 1.9, 5.15, 7.02, 8.03, 8.67, 8.63, 8.95, 8.48, 8.67, 8.38, 7.71, 4.81, 1.6, 1.41, 1.63, 2.35, 2.12, 2.9, 3.69, 3.33, -0.0, -0.0, -0.0, 8.65, 8.65, 8.65, 9.21, 9.21, 9.21, 9.58, 9.21, 8.38, 7.86, 7.9, 8.22, 8.53, 9.46, 10.36, 11.52, 13.01, 13.76, 14.03, 13.76, 12.95, 12.28, 12.11, 12.83, 13.51, 14.16, 14.78, 14.81, 14.93, 15.1, 15.15, 13.75, 10.6, 9.77, 6.26, 3.22, 3.35, 4.11, 5.6, 5.81, 5.09, 5.34, 6.23, 5.64, 5.09, 2.68, -0.0, -0.0, 1.8, 3.16, 4.66, 4.24, 3.72, 2.48, 3.72, 4.24, 5.36, 6.79, 7.15, 6.7, 5.1, 4.96, 5.03, 5.93, 5.75, 6.23, 4.84, 5.01, 6.13, 6.52, 5.2, 1.26, -2.68, -2.24, 1.55, 4.96, 7.9, 8.93, 9.67, 9.27, 9.2, 8.95, 8.63, 8.33, 8.01, 6.51, 4.81, 2.29, 1.72, 1.72, 2.35, 2.9, 3.69, 4.22, 3.0, 1.47, -0.0, -0.0, 8.44, 8.65, 8.65, 9.01, 9.21, 9.21, 9.21, 9.21, 8.38, 8.15, 8.19, 8.5, 8.53, 9.72, 10.36, 11.28, 12.45, 13.58, 14.13, 14.03, 13.9, 13.23, 13.19, 13.12, 13.26, 14.34, 14.93, 15.48, 15.99, 16.05, 16.05, 16.05, 13.75, 12.79, 6.98, 4.92, 4.22, 4.8, 4.92, 5.7, 5.81, 4.8, 5.7, 4.47, 4.77, 1.3, -0.0, -0.0, 1.41, 4.09, 5.2, 5.01, 5.36, 5.75, 6.23, 7.06, 7.6, 8.49, 8.6, 8.15, 6.95, 6.87, 7.07, 7.2, 7.63, 6.51, 5.81, 5.2, 5.64, 5.6, 5.36, 2.54, 1.79, 3.22, 5.76, 7.48, 8.93, 10.28, 10.29, 9.9, 9.6, 8.95, 8.3, 7.28, 6.98, 5.75, 3.79, 1.6, 1.72, 2.64, 3.0, 2.9, 3.69, 4.46, 4.03, 3.11, 1.47, 1.47, 8.44, 8.65, 8.65, 8.65, 9.21, 9.21, 9.21, 9.21, 8.73, 8.38, 8.15, 8.5, 9.13, 9.72, 10.3, 11.23, 12.37, 13.21, 14.03, 14.29, 14.15, 13.87, 13.31, 12.6, 13.21, 14.65, 15.54, 15.99, 16.45, 16.9, 17.27, 17.34, 16.82, 13.41, 8.48, 6.98, 5.29, 5.64, 5.2, 4.8, 4.77, 3.82, 3.13, 3.2, 2.73, 2.6, 1.41, 2.98, 3.79, 5.2, 5.01, 5.75, 6.13, 6.13, 6.79, 7.5, 7.97, 8.17, 8.22, 8.15, 7.64, 8.15, 8.22, 8.17, 8.41, 7.11, 6.26, 5.81, 5.64, 6.71, 7.6, 8.01, 8.55, 9.3, 9.3, 9.67, 10.28, 11.26, 11.44, 10.8, 10.15, 9.49, 8.3, 6.54, 5.82, 4.43, 3.22, 1.7, 2.6, 2.47, 3.2, 3.2, 3.69, 4.46, 4.56, 3.9, 2.2, 2.2, 8.44, 8.65, 8.65, 8.65, 9.21, 9.21, 9.21, 9.21, 9.01, 8.38, 8.38, 8.45, 9.08, 9.72, 10.06, 12.22, 11.44, 12.65, 13.36, 13.48, 14.22, 14.51, 12.79, 13.64, 12.8, 14.95, 12.04, 15.84, 16.76, 15.11, 16.05, 16.91, 16.95, 15.38, 10.18, 4.66, 3.6, 4.55, 6.82, 6.79, 5.75, 5.81, 5.2, 4.66, 4.11, 3.76, 3.76, 4.11, 5.2, 5.2, 6.23, 5.75, 6.64, 6.64, 7.21, 7.63, 7.74, 7.81, 8.15, 8.15, 8.15, 8.22, 8.6, 7.42, 8.01, 7.6, 7.15, 6.65, 6.94, 8.41, 9.39, 11.36, 13.07, 13.23, 12.56, 12.09, 11.4, 11.96, 12.27, 11.84, 9.54, 8.8, 7.63, 6.54, 5.82, 5.15, 4.01, 4.01, 2.6, 2.88, 3.33, 3.4, 4.03, 4.46, 5.3, 4.16, 2.47, 2.47, 8.44, 8.65, 8.65, 8.65, 9.01, 9.21, 9.21, 9.21, 9.01, 8.38, 8.38, 8.73, 9.37, 10.01, 10.02, 10.65, 10.94, 10.94, 11.87, 12.51, 14.64, 14.15, 13.2, 12.89, 12.52, 13.14, 14.07, 12.03, 13.48, 14.51, 15.23, 15.51, 16.42, 14.48, 7.58, 2.68, 2.68, 4.4, 6.04, 7.13, 7.6, 8.42, 7.87, 6.51, 4.9, 6.13, 5.75, 5.6, 5.6, 5.6, 5.81, 6.23, 6.23, 6.64, 5.75, 6.4, 8.22, 6.64, 7.42, 8.63, 8.17, 8.41, 8.41, 8.49, 7.6, 7.15, 7.1, 7.1, 7.55, 8.49, 10.25, 12.14, 14.21, 15.34, 15.12, 14.3, 12.87, 12.3, 12.04, 11.18, 10.28, 8.9, 7.85, 6.4, 5.82, 5.09, 4.36, 4.36, 3.22, 3.22, 2.47, 3.2, 4.03, 5.1, 5.64, 4.95, 3.33, 3.33, 8.08, 8.65, 8.65, 8.65, 9.01, 9.21, 9.21, 9.21, 9.21, 8.38, 8.73, 8.73, 9.37, 9.94, 10.3, 10.94, 11.52, 10.94, 9.72, 11.14, 13.88, 12.93, 12.51, 11.92, 12.22, 12.73, 12.93, 12.82, 12.82, 13.62, 13.99, 14.11, 14.73, 10.0, 3.39, 1.49, 2.4, 3.39, 5.24, 6.71, 8.47, 9.24, 9.57, 8.67, 6.79, 7.63, 6.64, 6.23, 6.23, 5.81, 6.14, 6.14, 5.81, 5.36, 6.13, 5.46, 6.44, 6.32, 7.76, 7.74, 7.97, 8.05, 8.05, 8.49, 7.55, 7.11, 6.65, 6.65, 7.6, 8.45, 9.54, 11.37, 13.78, 15.12, 15.18, 13.96, 12.25, 11.83, 11.2, 10.75, 10.16, 8.94, 7.42, 6.0, 5.15, 4.74, 5.06, 5.06, 4.74, 3.72, 3.22, 3.33, 4.83, 5.21, 5.64, 5.0, 3.55, 3.55, 8.08, 8.44, 8.65, 8.65, 9.01, 9.21, 9.21, 9.21, 9.21, 8.73, 8.73, 8.94, 9.37, 9.94, 10.23, 10.88, 11.8, 11.28, 10.69, 10.99, 12.45, 12.93, 11.52, 11.03, 12.27, 13.73, 14.68, 14.29, 13.62, 13.08, 12.79, 13.31, 12.11, 6.6, 2.17, 1.7, 2.17, 2.63, 3.54, 4.92, 6.23, 7.51, 8.33, 8.33, 6.36, 4.9, 7.21, 7.5, 6.61, 6.14, 6.14, 5.2, 5.01, 4.43, 4.74, 5.06, 5.77, 6.39, 7.76, 7.63, 7.1, 7.6, 8.01, 8.01, 8.01, 7.55, 7.1, 6.26, 6.16, 6.28, 6.87, 9.3, 11.44, 12.09, 7.35, 7.32, 8.58, 9.21, 9.84, 9.78, 9.75, 8.05, 6.7, 5.15, 4.29, 4.16, 4.65, 4.65, 5.06, 4.01, 3.38, 3.9, 4.56, 5.64, 5.64, 5.0, 3.55, 3.55, 8.08, 8.08, 8.44, 8.65, 8.65, 9.21, 9.21, 9.21, 9.21, 8.73, 8.73, 9.3, 9.66, 9.94, 10.51, 11.16, 11.72, 11.8, 11.52, 12.16, 13.21, 13.75, 12.27, 10.65, 10.72, 12.73, 14.68, 15.35, 15.42, 14.32, 13.62, 13.32, 11.62, 7.09, 3.54, 2.63, 2.63, 2.68, 3.13, 4.02, 4.89, 5.7, 6.51, 6.94, 5.81, 4.9, 7.97, 8.05, 6.71, 5.81, 5.2, 4.11, 3.76, 3.76, 3.76, 4.74, 4.81, 5.77, 6.7, 6.7, 6.65, 7.15, 7.85, 7.63, 7.21, 6.94, 5.81, 4.6, 4.16, 4.03, 4.74, 5.72, 9.97, 7.21, 4.47, 3.58, 4.66, 6.07, 6.98, 7.61, 7.47, 6.21, 4.54, 3.47, 3.9, 4.16, 4.16, 4.65, 4.95, 5.06, 4.07, 4.36, 5.0, 5.3, 5.64, 5.0, 3.55, 3.55, 8.08, 8.08, 8.08, 8.65, 8.65, 9.01, 9.21, 9.21, 9.21, 8.94, 8.94, 9.3, 9.86, 9.94, 10.51, 11.07, 11.35, 11.72, 11.8, 12.09, 13.58, 14.82, 13.76, 11.62, 10.59, 11.23, 12.93, 14.82, 15.59, 15.42, 15.02, 14.72, 13.09, 10.18, 6.84, 4.8, 4.44, 3.99, 4.02, 4.02, 4.44, 5.24, 5.7, 5.99, 5.51, 5.24, 8.49, 8.49, 6.71, 5.64, 5.01, 4.02, 3.76, 4.43, 4.43, 5.01, 4.19, 4.84, 6.13, 6.8, 6.65, 6.71, 6.94, 6.51, 6.02, 4.92, 3.63, 3.35, 3.27, 4.16, 4.6, 9.32, 11.6, 11.18, 10.79, 9.2, 8.22, 7.52, 7.06, 5.34, 4.02, 2.86, 2.3, 2.4, 2.8, 3.11, 3.9, 4.16, 4.65, 4.95, 5.06, 5.09, 5.06, 5.37, 5.0, 5.0, 3.9, 3.9, 8.08, 8.08, 8.08, 8.65, 8.65, 8.65, 9.21, 9.21, 9.21, 9.21, 8.94, 9.3, 9.86, 9.94, 10.51, 11.07, 11.44, 11.62, 11.72, 11.8, 12.93, 14.4, 14.82, 13.62, 12.16, 11.07, 12.16, 13.36, 14.67, 15.19, 15.42, 15.44, 14.72, 13.02, 10.18, 8.21, 6.97, 6.61, 6.26, 5.36, 5.34, 5.34, 5.7, 6.16, 5.7, 5.34, 5.79, 6.26, 5.34, 5.09, 4.29, 6.13, 5.01, 5.01, 5.01, 5.2, 5.2, 4.38, 5.36, 6.58, 7.06, 6.71, 6.26, 6.26, 4.85, 2.4, 2.54, 3.15, 4.12, 5.2, 6.71, 8.9, 12.07, 12.58, 13.07, 12.98, 12.22, 10.75, 8.87, 4.02, 1.0, -0.0, 0.7, 1.41, 1.7, 2.6, 3.47, 3.33, 4.29, 5.06, 5.77, 5.72, 5.72, 5.06, 5.06, 4.65, 4.07, 4.07, 8.08, 8.08, 8.08, 8.44, 8.65, 8.65, 9.01, 9.21, 9.21, 9.21, 8.94, 9.3, 9.86, 9.94, 10.51, 11.07, 11.44, 11.62, 11.62, 11.72, 12.65, 13.75, 14.82, 14.82, 13.36, 12.27, 12.16, 12.7, 13.62, 14.28, 14.91, 15.23, 15.02, 14.23, 12.11, 10.0, 8.96, 8.33, 8.03, 7.15, 6.71, 6.26, 6.23, 6.68, 6.61, 6.68, 6.26, 6.26, 6.23, 5.7, 5.09, 4.6, 5.81, 5.6, 5.2, 5.2, 5.64, 5.81, 6.26, 6.26, 7.5, 7.97, 7.1, 6.2, 4.19, 1.55, 1.67, 3.27, 5.06, 5.75, 6.26, 8.49, 9.83, 11.96, 12.3, 12.56, 12.4, 10.37, 5.75, 1.26, -0.0, -0.85, -0.0, -0.0, 0.76, 1.72, 2.47, 3.11, 4.01, 4.43, 5.82, 5.72, 5.72, 5.09, 4.74, 4.74, 4.11, 4.11, 8.08, 8.08, 8.08, 8.08, 8.65, 8.65, 9.01, 9.21, 9.21, 9.21, 8.94, 9.3, 9.86, 10.23, 10.51, 11.07, 11.07, 11.62, 11.62, 11.62, 12.16, 12.82, 13.75, 14.29, 13.9, 13.75, 13.36, 13.23, 13.62, 13.99, 13.99, 13.99, 13.82, 13.53, 11.92, 10.21, 9.27, 9.11, 9.24, 9.32, 8.92, 8.05, 7.6, 7.13, 7.13, 7.58, 7.58, 7.15, 6.71, 5.79, 5.34, 4.44, 3.53, 2.91, 3.9, 4.82, 6.26, 6.26, 5.81, 6.26, 7.6, 8.01, 7.97, 5.59, 3.45, 1.55, 2.4, 4.74, 5.21, 6.45, 7.1, 7.6, 8.94, 9.8, 10.45, 10.95, 11.87, 8.24, 2.24, -1.79, -2.4, -1.58, -1.74, -0.73, -0.0, 0.69, 2.35, 2.47, 3.47, 4.43, 5.46, 6.07, 6.18, 5.43, 5.09, 5.09, 4.12, 4.12, 8.08, 8.08, 8.08, 8.08, 8.65, 8.65, 8.65, 9.21, 9.21, 9.21, 8.94, 9.3, 9.86, 10.23, 10.51, 11.07, 11.07, 11.62, 11.62, 11.62, 12.16, 12.7, 13.62, 13.62, 13.62, 13.75, 13.48, 13.9, 14.29, 14.15, 14.39, 13.99, 13.71, 13.02, 11.41, 9.3, 8.3, 8.64, 8.79, 9.32, 8.87, 8.47, 7.6, 7.6, 8.03, 7.97, 8.03, 8.05, 7.15, 6.26, 5.36, 4.47, 3.13, 1.79, 1.79, 3.58, 5.81, 6.26, 5.36, 5.75, 6.26, 8.05, 8.05, 6.02, 3.33, 2.33, 4.16, 5.82, 6.2, 6.71, 7.15, 8.05, 8.46, 8.49, 8.94, 10.28, 11.15, 8.9, 2.68, -2.24, -2.68, -1.79, -1.61, -1.47, -0.0, 0.74, 2.12, 3.11, 3.47, 4.11, 5.21, 6.4, 6.44, 6.07, 5.69, 5.05, 4.46, 4.46, 8.08, 8.08, 8.08, 8.08, 8.65, 8.65, 8.65, 9.01, 9.21, 9.21, 9.21, 9.3, 9.5, 9.86, 10.41, 10.7, 11.07, 11.62, 11.62, 11.62, 11.62, 12.16, 13.09, 13.62, 13.62, 13.62, 13.23, 13.36, 13.9, 14.29, 14.15, 13.99, 13.71, 13.02, 10.91, 8.8, 7.81, 7.74, 8.33, 8.79, 9.32, 8.87, 8.03, 8.94, 8.45, 6.97, 7.97, 6.71, 4.47, 5.34, 4.34, 3.39, 2.6, 1.34, 1.2, 1.7, 4.47, 4.92, 3.6, 4.38, 5.36, 7.42, 7.11, 4.98, 2.51, 3.4, 4.83, 5.82, 5.75, 5.75, 7.1, 8.45, 8.8, 8.63, 9.24, 10.25, 10.93, 10.73, 8.05, 3.58, 0.0, -0.45, -0.0, 0.55, 0.69, 1.52, 2.04, 3.22, 3.63, 4.54, 5.21, 6.7, 7.28, 6.54, 6.0, 5.34, 4.4, 4.4, 7.85, 7.85, 8.08, 8.08, 8.44, 8.65, 8.65, 9.01, 9.21, 9.21, 9.21, 9.3, 9.5, 9.86, 10.41, 10.7, 11.07, 11.24, 11.62, 11.62, 11.62, 12.16, 12.7, 13.09, 13.62, 13.62, 13.23, 13.09, 13.36, 13.9, 13.76, 13.99, 13.71, 13.02, 11.41, 9.2, 8.22, 8.0, 8.21, 8.77, 9.23, 8.87, 8.42, 7.06, 5.81, 8.05, 9.83, 4.47, 0.89, -0.45, -0.32, 0.0, 1.26, 0.95, 0.63, 1.2, 1.79, 1.86, 2.6, 3.58, 5.09, 6.7, 5.81, 3.63, 3.33, 3.11, 3.55, 4.75, 4.19, 4.92, 6.02, 7.55, 8.94, 9.8, 10.02, 10.85, 11.37, 11.36, 11.15, 10.28, 7.56, 4.44, 5.09, 5.59, 4.45, 2.88, 2.2, 3.07, 3.84, 4.46, 5.44, 6.98, 7.56, 7.21, 6.36, 5.59, 3.83, 3.83, 7.51, 7.51, 8.08, 8.08, 8.08, 8.65, 8.65, 8.65, 9.21, 9.21, 9.21, 9.21, 9.5, 9.86, 10.41, 10.79, 11.07, 11.07, 11.62, 11.62, 11.62, 12.16, 12.54, 13.09, 13.62, 13.62, 13.23, 12.95, 12.95, 13.48, 13.48, 13.48, 13.31, 13.02, 11.41, 9.71, 8.51, 8.48, 8.21, 8.77, 9.23, 9.23, 8.79, 7.43, 6.47, 8.3, 9.33, 4.34, 0.89, -0.45, -0.45, 0.0, 0.0, 0.63, 0.63, 0.89, 1.34, 1.2, 1.6, 3.13, 4.85, 5.75, 5.2, 3.63, 4.54, 3.79, 2.68, 2.73, 4.11, 5.2, 4.92, 5.75, 7.63, 10.45, 12.04, 11.84, 11.45, 10.95, 10.93, 11.6, 11.18, 10.28, 9.11, 9.71, 9.2, 5.75, 2.79, 2.86, 3.83, 4.66, 5.77, 7.12, 7.6, 7.15, 6.66, 5.77, 3.83, 3.83, 7.51, 7.51, 8.08, 8.08, 8.08, 8.65, 8.65, 8.65, 9.01, 9.21, 9.21, 9.21, 9.3, 9.86, 10.41, 10.79, 10.7, 11.07, 11.24, 11.62, 11.88, 12.03, 12.16, 12.7, 13.09, 13.62, 13.23, 12.42, 13.83, 12.28, 12.95, 13.48, 13.48, 12.79, 11.6, 10.0, 9.42, 8.72, 8.48, 8.67, 9.11, 9.23, 9.23, 8.77, 7.74, 7.81, 8.48, 7.51, 4.92, 3.13, 2.24, 1.79, 1.2, 1.34, 0.89, 0.89, 0.89, 1.34, 1.7, 2.24, 4.47, 5.29, 4.84, 4.8, 4.8, 5.09, 3.95, 3.58, 4.47, 6.14, 5.59, 5.21, 6.52, 9.21, 13.21, 13.86, 11.4, 9.33, 9.24, 9.83, 11.15, 11.42, 11.52, 11.08, 11.56, 9.11, 5.24, 3.09, 3.95, 4.85, 5.77, 7.15, 7.6, 7.15, 6.71, 5.36, 3.45, 3.45, 7.51, 7.51, 7.51, 8.08, 8.08, 8.08, 8.65, 8.65, 9.01, 9.21, 9.21, 9.21, 9.3, 9.5, 10.41, 10.41, 10.96, 11.34, 11.34, 11.62, 11.88, 12.03, 12.16, 12.54, 13.09, 13.23, 13.09, 12.42, 11.5, 13.49, 11.5, 12.03, 12.42, 12.42, 11.36, 10.4, 9.3, 9.01, 8.96, 8.96, 9.11, 9.57, 9.57, 9.11, 8.48, 8.48, 9.11, 9.23, 8.92, 8.03, 6.68, 4.92, 3.58, 3.13, 2.24, 1.79, 1.79, 1.34, 1.7, 2.17, 3.07, 4.57, 5.2, 4.57, 5.29, 4.92, 4.92, 4.92, 5.36, 6.26, 6.28, 6.4, 6.51, 8.94, 13.86, 15.65, 12.52, 8.94, 8.46, 10.18, 11.89, 12.66, 13.12, 13.25, 12.84, 11.57, 7.6, 4.47, 4.47, 4.47, 5.81, 6.71, 7.6, 7.15, 6.71, 5.36, 3.22, 3.22, 7.51, 7.51, 7.51, 8.08, 8.08, 8.08, 8.65, 8.65, 8.65, 9.21, 9.21, 9.21, 9.3, 9.5, 9.86, 10.41, 10.79, 10.96, 11.34, 11.5, 11.88, 11.88, 12.16, 12.54, 12.7, 13.09, 12.7, 12.54, 12.16, 12.16, 12.03, 11.5, 10.96, 10.83, 10.16, 9.35, 8.8, 9.01, 9.21, 9.39, 9.43, 9.43, 9.43, 9.43, 8.96, 8.96, 9.11, 9.23, 9.23, 8.87, 7.98, 7.13, 5.81, 4.92, 3.58, 3.13, 2.24, 2.24, 2.17, 2.17, 4.24, 4.66, 5.2, 5.2, 4.47, 4.92, 4.92, 4.92, 5.36, 5.81, 6.51, 7.21, 7.6, 9.7, 13.21, 15.65, 14.66, 12.09, 11.52, 12.79, 13.79, 14.29, 14.3, 13.86, 13.86, 11.62, 8.92, 5.7, 5.31, 4.47, 4.85, 7.15, 7.6, 7.6, 7.15, 5.36, 3.16, 3.16, 7.51, 7.51, 7.51, 7.73, 8.08, 8.08, 8.65, 8.65, 8.65, 9.01, 9.21, 9.21, 9.3, 9.3, 9.86, 10.41, 10.79, 10.96, 11.34, 11.34, 11.5, 11.88, 12.42, 12.54, 12.7, 12.7, 12.7, 12.7, 12.7, 12.82, 12.7, 12.03, 10.83, 9.63, 8.43, 7.23, 7.48, 7.81, 8.3, 9.21, 9.27, 9.7, 9.86, 9.86, 9.43, 9.43, 9.54, 9.11, 9.23, 9.23, 8.77, 7.97, 7.06, 5.79, 4.92, 4.02, 3.13, 3.13, 3.13, 2.24, 2.6, 4.24, 4.66, 5.36, 5.36, 5.36, 4.38, 4.85, 5.29, 5.75, 5.64, 6.61, 8.49, 10.7, 12.86, 13.86, 14.44, 14.42, 14.64, 14.57, 14.3, 14.29, 13.34, 12.88, 12.94, 11.16, 9.77, 8.19, 5.75, 4.41, 4.85, 6.21, 7.6, 7.6, 6.71, 5.16, 3.07, 3.07, 7.51, 7.51, 7.51, 7.51, 8.08, 8.08, 8.08, 8.65, 8.65, 9.01, 9.21, 9.21, 9.3, 9.3, 9.5, 9.86, 10.41, 10.96, 10.96, 11.34, 11.5, 11.88, 11.88, 12.16, 12.7, 12.7, 12.7, 12.95, 12.7, 13.09, 13.09, 12.56, 11.36, 9.63, 7.76, 6.8, 5.89, 6.6, 7.09, 7.81, 8.79, 9.7, 9.7, 9.86, 9.86, 9.57, 9.57, 9.57, 9.57, 9.11, 8.67, 7.87, 6.97, 6.6, 5.7, 4.88, 3.98, 3.58, 3.58, 2.24, 2.24, 2.6, 4.92, 4.47, 4.92, 6.14, 4.85, 5.73, 5.75, 5.81, 6.26, 6.26, 8.87, 11.15, 12.52, 12.07, 12.49, 13.65, 15.01, 15.18, 14.3, 12.94, 11.53, 11.09, 11.08, 11.08, 10.49, 8.19, 5.75, 4.8, 5.59, 6.66, 7.15, 7.15, 5.81, 4.4, 3.07, 3.07, 7.51, 7.51, 7.51, 7.51, 8.08, 8.08, 8.08, 8.65, 8.65, 9.01, 9.21, 9.21, 9.3, 9.3, 9.5, 9.86, 10.41, 10.79, 10.96, 11.34, 11.34, 11.5, 11.88, 12.16, 12.54, 12.7, 12.7, 12.56, 12.42, 12.7, 12.7, 12.56, 11.88, 10.55, 8.68, 7.08, 6.51, 6.1, 6.3, 7.01, 8.0, 8.72, 8.79, 10.68, 9.11, 9.57, 9.43, 9.86, 9.86, 9.39, 8.48, 8.17, 6.79, 6.47, 5.57, 5.24, 4.34, 3.98, 2.68, 2.24, 2.24, 2.68, 4.92, 4.47, 4.92, 6.26, 4.85, 5.36, 5.81, 5.81, 5.81, 6.26, 7.97, 11.4, 12.42, 11.62, 10.7, 12.04, 14.22, 14.69, 13.84, 12.07, 11.18, 10.26, 9.81, 9.74, 9.62, 7.15, 7.35, 6.64, 6.36, 6.66, 7.15, 6.71, 5.29, 3.84, 3.84, 3.07, 7.51, 7.51, 7.51, 7.51, 7.73, 8.08, 8.08, 8.65, 8.65, 9.01, 9.21, 9.21, 8.94, 9.3, 9.5, 9.86, 9.86, 10.41, 10.96, 10.96, 11.34, 11.5, 11.5, 11.88, 12.16, 12.54, 12.7, 12.7, 12.42, 12.42, 12.7, 12.42, 11.5, 10.45, 9.35, 8.51, 7.71, 7.09, 6.79, 6.79, 7.09, 7.51, 7.71, 9.49, 8.64, 9.57, 9.91, 10.18, 10.18, 9.7, 8.72, 8.0, 6.6, 6.3, 5.57, 5.09, 4.34, 3.87, 2.63, 2.68, 2.24, 2.68, 4.92, 4.38, 4.92, 6.26, 5.81, 4.92, 5.36, 5.81, 5.81, 5.81, 7.15, 10.45, 13.49, 12.74, 10.73, 11.66, 13.15, 13.88, 13.25, 12.05, 11.18, 10.28, 9.39, 9.39, 9.39, 9.11, 9.74, 9.6, 8.19, 6.98, 6.66, 6.21, 5.09, 3.84, 4.46, 3.84, 7.51, 7.51, 7.51, 7.51, 7.73, 8.08, 8.08, 8.65, 8.65, 8.65, 9.01, 9.21, 8.94, 9.3, 9.3, 9.86, 9.86, 10.41, 10.79, 10.96, 10.96, 11.34, 11.5, 11.88, 12.03, 12.16, 12.54, 12.95, 12.42, 12.03, 12.42, 12.42, 11.5, 10.3, 9.25, 8.68, 8.51, 8.3, 8.0, 7.58, 7.51, 7.51, 6.8, 6.41, 9.36, 9.7, 10.49, 10.21, 10.0, 9.71, 8.51, 7.31, 6.28, 6.0, 5.31, 4.6, 4.11, 3.39, 3.07, 2.6, 2.24, 2.6, 3.07, 5.64, 5.64, 6.14, 5.29, 5.29, 5.36, 5.81, 5.81, 5.36, 6.71, 8.05, 11.56, 12.39, 12.56, 11.18, 10.68, 9.68, 9.58, 9.36, 9.39, 9.72, 9.58, 9.89, 10.1, 10.95, 11.03, 11.23, 10.02, 7.76, 6.98, 6.07, 5.09, 4.22, 4.8, 4.46, 7.51, 7.51, 7.51, 7.51, 7.51, 8.08, 8.08, 8.08, 8.65, 8.65, 9.01, 9.21, 9.21, 9.3, 9.3, 9.5, 9.86, 10.41, 10.41, 10.96, 10.96, 11.34, 11.5, 11.5, 11.88, 12.03, 12.42, 12.42, 12.42, 12.03, 12.03, 12.03, 11.5, 10.3, 9.1, 8.96, 8.8, 9.01, 8.79, 8.72, 8.3, 7.81, 6.8, 6.41, 7.15, 10.66, 9.63, 9.63, 8.55, 7.9, 7.08, 6.28, 5.75, 5.37, 5.08, 4.8, 4.11, 3.39, 2.91, 2.63, 2.6, 2.6, 4.46, 5.2, 5.64, 5.64, 5.29, 6.14, 5.29, 5.81, 5.81, 5.81, 6.26, 6.71, 7.97, 10.62, 12.39, 12.56, 10.16, 7.15, 6.71, 7.92, 9.15, 10.32, 10.6, 11.09, 11.03, 11.23, 11.4, 11.4, 10.49, 9.26, 7.45, 6.07, 5.09, 4.57, 5.09, 5.09, 7.17, 7.17, 7.51, 7.51, 7.51, 8.08, 8.08, 8.08, 8.65, 8.65, 8.65, 9.21, 9.21, 9.3, 9.3, 9.5, 9.86, 9.86, 10.41, 10.79, 10.96, 10.96, 11.34, 11.5, 11.88, 12.03, 12.03, 12.03, 12.03, 12.28, 11.75, 11.75, 11.36, 10.3, 9.63, 8.96, 8.68, 8.8, 9.01, 9.01, 9.01, 8.51, 8.0, 7.23, 7.44, 8.84, 9.63, 8.96, 7.61, 6.03, 5.08, 4.55, 4.93, 4.84, 5.08, 4.8, 3.7, 3.2, 2.91, 2.91, 3.07, 2.91, 3.6, 5.2, 5.64, 5.7, 5.81, 6.14, 5.36, 5.81, 6.26, 6.2, 6.58, 6.02, 7.06, 8.05, 10.93, 13.99, 13.23, 10.68, 9.34, 10.27, 11.3, 12.01, 12.18, 11.84, 10.96, 11.08, 11.08, 11.08, 11.15, 9.81, 7.6, 5.75, 4.85, 4.85, 4.85, 4.85, 7.17, 7.17, 7.51, 7.51, 7.51, 7.73, 8.08, 8.08, 8.65, 8.65, 8.65, 9.01, 9.21, 8.94, 9.3, 9.5, 9.86, 9.86, 10.41, 10.41, 10.96, 10.96, 10.96, 11.5, 11.5, 11.88, 12.03, 12.28, 11.75, 11.75, 11.36, 11.22, 11.08, 10.16, 9.63, 9.1, 8.96, 9.2, 8.8, 9.01, 9.01, 9.01, 8.28, 8.15, 8.27, 9.1, 10.0, 9.3, 8.0, 5.6, 3.88, 2.98, 3.35, 3.64, 4.0, 4.0, 3.35, 3.2, 2.91, 2.91, 2.91, 3.32, 3.6, 5.6, 5.64, 5.81, 5.81, 5.81, 4.92, 5.81, 6.26, 6.21, 6.28, 6.7, 6.94, 8.14, 9.81, 12.86, 14.42, 13.75, 12.86, 12.79, 13.18, 13.21, 12.49, 11.89, 11.08, 10.63, 10.7, 11.18, 11.18, 9.83, 7.6, 4.92, 4.92, 4.47, 4.47, 4.47, 6.92, 6.92, 7.17, 7.51, 7.51, 7.73, 8.08, 8.08, 8.08, 8.65, 8.65, 9.01, 9.21, 8.94, 9.3, 9.3, 9.5, 9.86, 9.86, 10.41, 10.41, 10.96, 10.96, 11.34, 11.5, 11.88, 12.03, 12.28, 11.75, 11.75, 11.36, 11.08, 10.16, 9.88, 9.88, 9.35, 9.35, 8.96, 8.8, 8.68, 8.8, 8.8, 8.68, 8.68, 8.43, 9.35, 9.88, 10.21, 9.51, 7.81, 5.81, 3.88, 3.2, 2.79, 3.35, 3.72, 3.35, 3.07, 2.68, 2.91, 2.91, 3.39, 3.6, 4.3, 6.26, 5.81, 5.81, 4.85, 5.29, 5.36, 6.26, 6.02, 6.7, 6.8, 7.35, 8.14, 9.36, 11.59, 13.05, 13.64, 13.43, 13.85, 14.27, 14.35, 12.92, 12.18, 11.53, 11.15, 10.73, 10.73, 11.62, 5.77, 5.36, 4.92, 4.47, 3.95, 3.95, 3.95, 6.92, 6.92, 7.17, 7.51, 7.51, 7.51, 8.08, 8.08, 8.08, 8.65, 8.65, 8.65, 9.21, 9.21, 9.3, 9.3, 9.5, 9.86, 9.86, 10.04, 10.41, 10.79, 10.96, 10.96, 11.5, 11.5, 11.88, 12.28, 11.88, 11.75, 11.47, 10.68, 10.4, 9.48, 8.96, 8.96, 8.43, 8.68, 8.68, 8.68, 8.8, 9.2, 9.2, 8.82, 8.82, 8.96, 9.48, 10.0, 10.0, 9.2, 8.0, 6.1, 4.8, 3.72, 3.35, 2.84, 3.14, 2.79, 2.68, 2.68, 2.91, 3.39, 3.6, 3.87, 4.47, 6.26, 5.81, 4.92, 5.29, 5.36, 5.59, 5.75, 6.16, 6.7, 7.21, 7.89, 8.9, 10.73, 11.52, 11.87, 12.39, 13.99, 14.83, 14.77, 14.13, 13.09, 11.99, 11.62, 11.18, 11.57, 8.87, 5.75, 4.92, 4.92, 4.47, 3.2, 3.2, 3.2, 6.92, 6.92, 7.17, 7.51, 7.51, 7.51, 8.08, 8.08, 8.08, 8.65, 8.65, 8.65, 9.01, 9.21, 9.3, 9.3, 9.5, 9.86, 9.86, 9.86, 10.41, 10.41, 10.96, 10.96, 11.34, 11.5, 11.5, 11.88, 11.75, 11.75, 11.6, 10.68, 9.88, 9.35, 8.68, 8.15, 8.15, 8.15, 8.28, 8.68, 8.68, 8.68, 8.96, 8.96, 8.96, 8.96, 9.35, 9.48, 9.63, 9.88, 9.2, 8.0, 6.28, 5.08, 3.43, 3.43, 2.84, 2.79, 2.79, 2.68, 2.68, 3.39, 3.39, 3.53, 3.58, 5.81, 5.81, 5.64, 5.81, 5.2, 5.75, 5.75, 6.16, 6.7, 7.42, 8.01, 8.46, 9.83, 10.7, 10.25, 11.37, 13.91, 15.1, 15.04, 14.84, 13.56, 12.52, 11.6, 11.06, 9.75, 7.71, 5.75, 4.92, 4.47, 4.38, 2.84, 2.84, 2.84, 6.92, 6.92, 6.92, 7.17, 7.51, 7.51, 7.51, 8.08, 8.08, 8.08, 8.65, 8.65, 9.01, 8.94, 8.94, 9.3, 9.3, 9.5, 9.86, 9.86, 10.04, 10.41, 10.79, 10.96, 10.96, 11.5, 11.5, 11.5, 11.75, 11.75, 11.22, 10.68, 10.4, 9.35, 8.68, 8.15, 7.87, 7.87, 8.0, 8.51, 8.91, 8.68, 8.68, 8.96, 9.35, 9.35, 9.35, 9.35, 9.35, 9.1, 9.35, 8.68, 7.48, 6.41, 4.84, 4.37, 3.78, 3.43, 3.14, 2.79, 3.07, 3.39, 3.39, 3.07, 2.63, 4.77, 5.64, 6.14, 6.14, 5.59, 6.02, 6.02, 6.51, 6.94, 7.42, 7.55, 8.01, 8.94, 9.36, 9.54, 10.45, 12.37, 13.99, 14.27, 15.04, 14.31, 12.05, 10.19, 9.74, 8.24, 6.16, 4.85, 4.47, 4.47, 3.74, 1.8, 1.8, 1.8, 6.92, 6.92, 6.92, 7.17, 7.51, 7.51, 7.51, 8.08, 8.08, 8.08, 8.65, 8.65, 9.01, 8.94, 8.94, 9.3, 9.3, 9.3, 9.5, 9.86, 9.86, 10.41, 10.41, 10.96, 10.96, 11.34, 11.5, 11.5, 11.75, 11.75, 11.22, 10.68, 10.16, 9.48, 8.82, 8.15, 7.87, 7.48, 8.0, 8.0, 8.51, 8.51, 8.68, 8.8, 8.96, 9.35, 9.48, 9.48, 9.35, 9.35, 8.82, 8.43, 7.76, 7.23, 6.03, 5.21, 4.65, 4.07, 4.0, 3.72, 3.6, 3.2, 3.39, 2.91, 2.4, 4.0, 4.57, 5.29, 5.75, 6.02, 6.51, 6.94, 6.94, 6.94, 7.42, 7.42, 7.55, 8.05, 8.46, 9.24, 9.7, 10.93, 11.62, 13.23, 14.11, 14.31, 8.94, 7.06, 5.72, 4.46, 3.45, 3.47, 3.58, 3.95, 2.53, -0.0, -0.0, -0.0, 6.92, 6.92, 6.92, 7.17, 7.51, 7.51, 7.51, 8.08, 8.08, 8.08, 8.65, 8.65, 9.01, 8.73, 8.94, 9.3, 9.3, 9.3, 9.5, 9.86, 9.86, 10.41, 10.41, 10.79, 10.96, 11.34, 11.34, 11.5, 11.5, 11.36, 11.22, 10.55, 10.16, 9.88, 8.96, 8.28, 7.76, 7.48, 8.0, 8.0, 8.51, 8.51, 8.91, 8.68, 9.2, 8.96, 9.35, 9.88, 9.48, 9.35, 8.82, 8.27, 7.9, 7.23, 6.95, 6.03, 5.49, 5.21, 4.65, 4.0, 3.88, 3.6, 3.2, 3.07, 3.07, 3.93, 4.15, 4.15, 5.09, 5.2, 6.16, 6.7, 7.12, 7.21, 6.98, 6.98, 7.55, 7.6, 7.6, 8.46, 9.26, 9.7, 9.83, 11.45, 13.96, 12.44, 8.91, 5.77, 2.86, 1.9, 2.68, 2.68, 3.13, 2.6, 0.87, -0.82, -0.82, -0.82, 6.92, 6.92, 6.92, 6.92, 7.51, 7.51, 7.51, 7.73, 8.08, 8.08, 8.44, 8.65, 8.65, 8.73, 8.94, 8.94, 9.3, 9.3, 9.3, 9.86, 9.86, 9.86, 10.41, 10.79, 10.96, 10.96, 11.34, 11.34, 11.5, 11.22, 10.83, 10.3, 10.16, 9.63, 8.96, 8.68, 7.76, 8.0, 8.0, 8.0, 8.51, 8.51, 8.91, 8.91, 8.68, 9.2, 9.35, 9.48, 9.48, 9.35, 8.82, 8.43, 8.27, 7.61, 7.07, 6.56, 6.03, 5.49, 5.21, 4.55, 4.27, 3.88, 3.6, 3.6, 3.35, 3.35, 4.22, 4.0, 4.22, 4.19, 4.84, 5.43, 6.4, 6.44, 7.21, 6.98, 7.11, 7.15, 7.15, 8.05, 8.46, 8.9, 9.26, 11.15, 15.18, 13.39, 10.7, 8.05, 4.47, 2.24, 2.24, 2.12, 2.4, 0.99, -0.76, -2.26, -2.26, -2.26, 6.92, 6.92, 6.92, 6.92, 7.17, 7.51, 7.51, 7.51, 8.08, 8.08, 8.44, 8.65, 8.38, 8.73, 8.94, 8.94, 9.3, 9.3, 9.3, 9.5, 9.86, 9.86, 10.41, 10.41, 10.79, 10.96, 10.96, 11.34, 11.34, 10.96, 10.83, 10.3, 10.02, 9.63, 9.35, 8.43, 8.15, 7.76, 8.0, 8.4, 8.51, 8.91, 8.91, 9.01, 8.91, 8.8, 9.2, 9.6, 9.48, 9.35, 9.1, 8.55, 8.18, 7.9, 7.61, 6.7, 6.41, 5.86, 5.21, 4.65, 4.0, 3.88, 3.72, 3.35, 3.72, 3.43, 4.98, 4.6, 4.22, 4.22, 4.19, 5.15, 5.06, 5.77, 6.8, 6.8, 6.7, 7.1, 7.11, 7.55, 8.05, 8.49, 9.39, 14.3, 15.2, 13.86, 11.62, 9.39, 5.81, 2.24, 1.26, 1.0, -0.0, -0.88, -2.4, -3.15, -3.15, -3.15, 6.92, 6.92, 6.92, 6.92, 7.17, 7.51, 7.51, 7.51, 8.08, 8.08, 8.08, 8.65, 8.38, 8.73, 8.73, 8.94, 8.94, 9.3, 9.3, 9.3, 9.86, 9.86, 10.41, 10.41, 10.79, 10.96, 10.96, 10.96, 10.96, 10.96, 10.68, 10.3, 10.02, 9.63, 9.35, 8.43, 8.15, 7.76, 8.0, 8.4, 8.51, 8.68, 8.8, 8.8, 9.01, 9.01, 9.2, 9.2, 9.2, 9.35, 9.35, 8.55, 8.0, 7.9, 7.35, 7.23, 6.95, 6.03, 5.49, 4.84, 4.55, 4.0, 3.88, 3.72, 3.43, 4.0, 4.55, 4.8, 5.29, 5.29, 5.34, 5.82, 5.15, 4.81, 4.29, 5.43, 6.21, 6.28, 6.94, 6.98, 7.55, 8.05, 11.62, 14.3, 14.75, 13.41, 10.7, 7.92, 3.51, 0.95, -0.0, -0.0, -1.7, -3.09, -3.32, -3.06, -3.06, -3.06, 6.92, 6.92, 6.92, 6.92, 7.17, 7.51, 7.51, 7.51, 8.08, 8.08, 8.08, 8.44, 8.38, 8.38, 8.73, 8.73, 8.94, 9.3, 9.3, 9.3, 9.86, 9.86, 9.86, 10.41, 10.79, 10.79, 10.96, 10.96, 10.96, 10.96, 10.68, 10.13, 10.02, 9.48, 9.35, 8.43, 8.15, 7.76, 7.76, 8.15, 8.68, 8.68, 9.2, 9.2, 9.2, 9.2, 9.2, 9.2, 9.2, 9.2, 8.96, 8.55, 8.18, 8.0, 7.9, 7.61, 7.07, 6.41, 5.86, 5.21, 4.29, 4.0, 3.64, 3.64, 4.0, 4.37, 4.55, 4.8, 5.29, 5.29, 6.02, 6.02, 6.02, 6.02, 5.2, 5.21, 5.06, 5.82, 6.4, 6.7, 6.94, 7.55, 10.7, 13.32, 14.11, 11.52, 7.6, 2.97, -0.0, -0.85, -1.49, -2.8, -3.27, -4.0, -3.21, -3.15, -3.15, -3.15, 6.92, 6.92, 6.92, 6.92, 6.92, 7.51, 7.51, 7.51, 7.85, 8.08, 8.08, 8.44, 8.38, 8.38, 8.73, 8.73, 8.94, 9.3, 9.3, 9.3, 9.66, 9.86, 9.86, 10.41, 10.41, 10.79, 10.79, 10.96, 10.96, 10.79, 10.68, 9.76, 9.38, 9.48, 9.1, 8.43, 7.9, 7.76, 7.76, 8.15, 8.68, 8.68, 9.2, 9.2, 9.2, 9.2, 9.2, 9.2, 9.2, 9.2, 9.2, 8.55, 8.55, 8.0, 7.64, 7.35, 7.35, 6.7, 6.41, 5.49, 4.65, 4.07, 4.0, 4.0, 4.0, 4.0, 4.37, 4.17, 4.11, 5.09, 5.73, 5.75, 6.21, 6.26, 6.26, 6.65, 6.51, 5.82, 6.8, 7.12, 6.94, 7.6, 8.94, 11.51, 12.58, 10.93, 6.22, 0.8, -1.6, -2.98, -3.79, -4.37, -4.5, -3.88, -3.88, -3.88, -3.88, -3.88, 6.92, 6.92, 6.92, 6.92, 6.92, 7.51, 7.51, 7.51, 7.51, 8.08, 8.08, 8.08, 8.15, 8.38, 8.73, 8.73, 8.73, 9.3, 9.3, 9.3, 9.3, 9.86, 9.86, 10.23, 10.41, 10.41, 10.79, 10.79, 10.79, 10.41, 10.04, 9.76, 9.21, 9.1, 8.93, 8.43, 7.9, 8.15, 8.15, 8.15, 8.68, 8.68, 9.2, 9.2, 9.2, 9.2, 9.2, 9.2, 9.2, 8.8, 8.68, 8.55, 8.37, 8.0, 7.64, 7.44, 7.35, 6.79, 6.7, 5.59, 5.29, 4.65, 4.07, 4.0, 4.0, 4.0, 4.0, 4.0, 3.88, 4.98, 5.09, 5.09, 5.73, 5.29, 5.75, 6.65, 6.94, 6.4, 6.8, 6.94, 6.98, 7.55, 8.05, 10.25, 11.96, 11.84, 8.38, 3.58, -2.2, -5.0, -5.59, -5.52, -5.04, -4.83, -3.88, -3.88, -3.88, -3.88, 6.92, 6.92, 6.92, 6.92, 6.92, 7.51, 7.51, 7.51, 7.51, 8.08, 8.08, 8.08, 8.15, 8.38, 8.73, 8.73, 8.73, 8.94, 9.3, 9.3, 9.3, 9.66, 9.86, 9.94, 9.94, 10.41, 10.41, 10.41, 10.41, 10.41, 9.86, 9.76, 9.21, 9.1, 8.55, 8.43, 7.9, 7.9, 8.15, 8.15, 8.68, 8.68, 9.2, 9.2, 9.2, 9.2, 9.2, 9.2, 9.2, 9.2, 8.68, 8.0, 8.08, 7.73, 7.8, 7.44, 7.09, 7.15, 6.79, 6.23, 5.59, 4.94, 4.65, 4.07, 4.0, 4.0, 4.0, 3.43, 3.72, 4.6, 4.6, 5.09, 4.85, 4.85, 5.51, 5.75, 6.16, 6.4, 6.8, 7.12, 6.7, 7.42, 8.01, 9.39, 11.62, 12.49, 10.25, 4.4, -2.4, -5.64, -6.28, -6.58, -5.52, -4.83, -4.2, -3.88, -3.88, -3.88, 6.92, 6.92, 6.92, 6.92, 6.92, 7.51, 7.51, 7.51, 7.51, 7.85, 8.08, 8.08, 8.15, 8.38, 8.38, 8.73, 8.73, 8.73, 8.94, 9.3, 9.3, 9.3, 9.66, 9.86, 9.94, 10.23, 10.41, 10.41, 10.41, 10.41, 9.86, 9.76, 9.21, 9.1, 8.55, 8.18, 8.27, 7.9, 7.9, 7.9, 8.68, 9.07, 9.2, 9.2, 9.2, 9.2, 9.2, 9.2, 9.2, 9.2, 8.68, 8.0, 8.0, 7.73, 7.51, 7.44, 6.87, 6.87, 6.52, 6.23, 5.65, 5.35, 4.71, 4.37, 4.07, 4.0, 3.64, 3.43, 3.43, 3.88, 4.11, 4.85, 4.92, 4.85, 5.09, 6.02, 6.16, 6.28, 6.7, 6.7, 6.94, 7.42, 8.45, 9.8, 11.6, 12.52, 10.73, 4.66, -3.35, -6.35, -6.98, -7.31, -6.58, -5.64, -4.83, -4.2, -4.2, -4.2, 6.92, 6.92, 6.92, 6.92, 6.92, 7.51, 7.51, 7.51, 7.51, 7.51, 8.08, 8.08, 8.08, 8.15, 8.38, 8.73, 8.73, 8.73, 8.73, 9.3, 9.3, 9.3, 9.66, 9.86, 9.59, 10.23, 10.23, 10.41, 10.41, 10.41, 9.86, 9.58, 9.21, 8.93, 8.55, 8.0, 8.0, 7.9, 7.9, 7.9, 8.43, 8.82, 8.96, 8.96, 9.35, 8.96, 8.96, 8.96, 8.96, 9.2, 8.68, 8.0, 8.0, 7.51, 7.51, 6.92, 6.87, 6.87, 6.28, 6.28, 5.98, 5.06, 5.01, 4.37, 4.07, 3.73, 3.43, 3.43, 3.72, 3.88, 3.87, 4.85, 4.47, 5.36, 4.47, 5.29, 6.2, 6.51, 6.51, 6.51, 6.98, 7.85, 8.33, 9.7, 11.59, 12.07, 10.73, 4.92, -3.83, -7.73, -7.92, -7.59, -7.31, -6.28, -5.38, -4.6, -4.6, -4.6, 6.92, 6.92, 6.92, 6.92, 6.92, 6.92, 7.51, 7.51, 7.51, 7.51, 7.85, 8.08, 8.08, 8.15, 8.38, 8.73, 8.73, 8.73, 8.73, 8.73, 9.3, 9.3, 9.3, 9.66, 9.86, 9.86, 10.23, 10.23, 10.23, 9.86, 9.86, 9.21, 8.84, 8.93, 8.55, 8.0, 8.0, 7.64, 7.9, 8.27, 8.43, 8.82, 8.96, 9.35, 9.35, 9.35, 8.96, 8.96, 8.96, 8.82, 8.43, 8.0, 8.0, 7.51, 7.17, 6.92, 6.59, 6.62, 6.28, 5.95, 5.69, 5.37, 5.01, 4.43, 4.11, 4.07, 3.48, 3.43, 3.43, 3.35, 3.6, 3.53, 3.13, 4.92, 4.02, 4.82, 5.29, 6.2, 6.2, 6.51, 6.94, 7.63, 8.14, 9.11, 11.06, 11.6, 10.73, 6.71, -2.24, -8.01, -9.06, -8.95, -7.92, -6.98, -5.94, -4.71, -4.71, -4.71, 6.92, 6.92, 6.92, 6.92, 6.92, 6.92, 7.51, 7.51, 7.51, 7.51, 7.85, 8.08, 8.08, 8.15, 8.38, 8.73, 8.73, 8.73, 8.73, 8.73, 9.3, 9.3, 9.3, 9.66, 9.86, 9.86, 10.23, 10.23, 10.23, 9.86, 9.86, 9.21, 8.84, 8.93, 8.55, 8.0, 8.0, 7.64, 7.9, 8.27, 8.43, 8.82, 8.96, 9.35, 9.35, 9.35, 8.96, 8.96, 8.96, 8.82, 8.43, 8.0, 8.0, 7.51, 7.17, 6.92, 6.59, 6.62, 6.28, 5.95, 5.69, 5.37, 5.01, 4.43, 4.11, 4.07, 3.48, 3.43, 3.43, 3.35, 3.6, 3.53, 3.13, 4.92, 4.02, 4.82, 5.75, 6.2, 6.2, 6.51, 6.94, 7.63, 8.14, 9.06, 10.16, 11.15, 10.73, 9.39, 5.75, -2.54, -7.55, -8.63, -8.4, -7.41, -6.32, -5.59, -5.59, -5.59]}, {"header": {"dx": 0.06612293990616946, "dy": 0.0552356325346848, "nx": 98, "ny": 59, "la1": 35.046912555036876, "la2": 31.78801023549047, "lo1": -121.43107172385933, "lo2": -114.95102361305473, "refTime": "2026040901", "parameterCategory": 1, "parameterNumber": 3}, "data": [-6.98, -6.71, -6.71, -6.71, -6.97, -6.97, -7.33, -7.33, -7.61, -7.6, -7.61, -6.34, -5.76, -3.88, -3.32, -2.44, -1.75, -0.84, 0.0, 0.0, 0.0, 0.0, 0.0, -0.81, -3.72, -5.36, -5.29, -5.09, -5.09, -4.85, -4.82, -4.47, -4.02, -3.9, -3.58, -3.48, -4.11, -4.43, -4.29, -4.16, -4.56, -5.1, -5.98, -6.97, -7.69, -8.99, -9.42, -10.1, -9.31, -7.93, -5.8, -3.85, -3.25, -2.39, -1.56, 0.0, 0.0, 0.0, 0.76, 0.8, 1.58, 1.58, 1.58, 1.58, 0.83, 0.77, 0.77, 0.8, 1.54, 1.54, 0.77, 0.77, 0.83, 0.8, 0.79, 0.82, 0.78, 0.0, 0.0, 0.0, -0.79, -1.72, -2.76, -2.95, -0.99, 1.74, 3.16, 4.11, 4.43, 5.21, 5.75, 6.02, 6.16, 6.16, 5.82, 5.15, 4.29, 4.01, -6.98, -6.71, -6.33, -6.71, -6.71, -6.97, -6.97, -7.61, -7.61, -7.61, -6.98, -7.36, -5.52, -4.4, -3.61, -2.46, -1.55, -1.32, -1.25, -1.73, -1.32, -1.25, -1.14, -1.26, -3.33, -5.73, -5.29, -5.51, -5.51, -5.09, -5.09, -4.82, -4.02, -3.47, -4.0, -3.48, -4.43, -4.29, -5.06, -4.95, -5.59, -6.4, -7.65, -9.1, -10.25, -11.92, -12.13, -11.08, -8.61, -6.21, -3.95, -3.21, -2.39, -1.5, -1.45, -0.82, 0.0, 0.0, 0.0, 0.8, 0.8, 0.8, 0.8, 0.0, 0.0, 0.0, 0.77, 0.8, 0.8, 0.8, 0.77, 0.77, 0.77, 0.0, 0.0, 0.0, 0.0, 0.0, 0.0, 0.0, -0.79, -1.72, -2.76, -2.95, -0.99, 1.74, 3.16, 4.11, 4.43, 5.21, 5.75, 6.02, 6.16, 6.16, 5.82, 5.15, 4.29, 4.01, -6.98, -6.71, -6.33, -6.71, -6.71, -6.97, -6.97, -7.61, -7.61, -7.33, -6.98, -6.34, -6.7, -5.76, -3.88, -3.15, -2.31, -2.54, -2.83, -2.54, -2.51, -2.54, -2.54, -2.54, -4.47, -5.75, -5.75, -6.02, -6.02, -6.02, -6.02, -5.51, -4.85, -4.92, -4.15, -5.01, -5.15, -5.77, -6.39, -7.41, -7.94, -9.2, -11.14, -12.01, -12.64, -11.92, -10.54, -8.18, -5.41, -3.21, -2.57, -2.35, -2.47, -1.62, -1.39, -0.82, 0.0, 0.0, 0.0, 0.0, 0.0, 0.0, 0.0, 0.0, 0.0, 0.0, 0.0, 0.8, 0.8, 0.8, 0.77, 0.0, 0.0, 0.0, 0.0, 0.0, 0.0, 0.0, -0.74, -1.52, -2.26, -3.11, -3.35, -0.99, 1.9, 3.45, 3.84, 4.54, 5.2, 5.59, 5.75, 5.75, 5.51, 5.2, 4.54, 4.11, 3.22, 3.22, -6.61, -6.33, -6.33, -6.33, -6.71, -6.71, -6.97, -7.61, -7.61, -7.61, -6.97, -6.95, -7.48, -6.05, -5.06, -4.2, -4.2, -4.2, -3.45, -3.27, -2.4, -2.69, -3.8, -3.45, -4.42, -6.23, -6.65, -6.02, -6.02, -6.51, -6.51, -6.94, -6.65, -6.71, -6.23, -6.52, -7.07, -7.21, -8.68, -9.92, -11.25, -12.49, -12.45, -11.76, -10.34, -8.95, -6.45, -4.07, -2.57, -1.67, -2.23, -2.47, -2.47, -1.62, -1.62, -0.79, 0.0, 0.0, 0.0, 0.0, 0.0, 0.0, 0.0, 0.0, 0.0, 0.77, 0.77, 1.44, 1.36, 1.36, 0.77, 0.0, 0.0, 0.0, 0.0, -0.75, -0.78, -1.54, -1.6, -2.44, -2.9, -4.01, -2.0, 1.9, 4.15, 5.09, 4.8, 5.09, 5.29, 5.29, 4.85, 4.82, 4.15, 3.93, 3.48, 3.35, 3.35, 3.35, -6.61, -6.33, -6.33, -6.71, -6.71, -6.71, -7.33, -7.61, -7.61, -7.61, -7.27, -6.92, -7.27, -6.04, -4.83, -5.64, -5.28, -4.83, -4.96, -4.12, -4.71, -3.8, -3.8, -3.52, -4.12, -6.52, -7.6, -7.5, -7.5, -7.11, -7.55, -8.01, -8.49, -8.49, -9.54, -9.63, -9.6, -9.86, -11.28, -12.51, -12.52, -11.2, -9.8, -8.01, -6.45, -5.41, -4.07, -2.47, -2.35, -1.68, -1.68, -1.54, -1.62, -1.62, -1.62, -0.79, 0.0, 0.0, 0.0, 0.0, 0.0, 0.0, 0.0, 0.8, 0.8, 0.83, 0.83, 1.64, 1.64, 1.64, 1.58, 0.8, 0.68, 0.0, 0.0, 0.0, -0.78, -1.6, -2.4, -2.82, -3.55, -2.76, 0.0, 3.95, 4.85, 4.85, 4.66, 4.85, 4.47, 4.47, 4.02, 3.9, 3.6, 3.22, 3.16, 3.48, 3.48, 4.22, -6.61, -6.33, -6.33, -6.71, -6.71, -6.71, -7.61, -7.61, -7.61, -7.61, -7.27, -6.28, -6.64, -5.21, -5.21, -4.83, -5.64, -6.04, -5.64, -6.53, -6.95, -6.73, -7.21, -6.32, -6.01, -7.44, -8.49, -8.94, -8.49, -8.94, -8.05, -8.05, -8.9, -9.7, -9.58, -9.83, -10.01, -10.28, -10.91, -11.88, -11.26, -10.04, -7.9, -6.57, -5.63, -4.6, -4.07, -3.36, -3.11, -2.39, -2.39, -2.39, -1.62, -1.62, -1.56, -0.76, 0.0, 0.0, 0.0, 0.0, 0.0, 0.0, 0.8, 0.8, 0.8, 0.8, 0.8, 1.52, 1.58, 1.58, 1.63, 2.41, 2.41, 2.41, 1.56, 0.0, 0.0, -0.84, -1.72, -3.33, -2.76, 0.0, 3.47, 4.47, 4.02, 4.02, 4.02, 4.02, 3.9, 3.58, 3.13, 2.97, 2.98, 2.84, 3.58, 3.58, 4.15, 4.57, -6.61, -6.33, -6.33, -6.33, -6.71, -6.71, -7.61, -7.61, -7.61, -7.32, -6.92, -5.59, -5.59, -4.96, -4.6, -4.83, -5.06, -6.15, -6.79, -7.22, -7.59, -8.31, -8.03, -8.43, -8.37, -8.63, -9.32, -9.39, -9.32, -8.45, -8.94, -8.49, -8.33, -8.82, -9.08, -9.6, -10.43, -10.55, -9.48, -10.0, -10.62, -9.6, -9.48, -8.49, -7.27, -5.52, -5.52, -4.92, -4.25, -3.39, -3.39, -2.39, -2.49, -1.56, -1.63, -1.52, -0.8, -0.8, 0.0, 0.0, 0.0, 0.0, 0.0, 0.0, 0.76, 0.76, 0.76, 0.82, 1.63, 1.63, 2.41, 3.16, 2.95, 2.44, 1.58, 0.79, 0.0, 0.0, -0.82, -0.85, 0.0, 2.97, 3.6, 3.2, 2.6, 2.23, 2.6, 2.6, 2.21, 2.0, 1.79, 2.0, 2.97, 3.6, 4.15, 4.57, 4.85, 4.85, -6.61, -6.33, -6.33, -6.33, -6.71, -6.71, -7.61, -7.61, -7.95, -7.3, -6.52, -5.75, -6.11, -5.63, -5.69, -5.04, -5.18, -6.45, -6.62, -7.08, -6.31, -5.95, -6.45, -7.08, -7.59, -7.44, -7.97, -8.49, -8.85, -9.32, -9.83, -10.73, -10.66, -10.6, -9.74, -10.27, -9.86, -8.63, -7.44, -8.8, -9.2, -9.2, -9.6, -9.1, -8.0, -7.21, -5.76, -5.64, -4.92, -4.36, -3.21, -3.11, -3.25, -2.41, -2.41, -1.58, -1.58, -1.58, -0.77, -0.77, -0.83, 0.0, 0.0, 0.0, 0.0, 0.0, 0.76, 0.79, 1.56, 2.41, 3.16, 2.41, 1.58, 0.83, 0.77, 0.0, 0.0, 0.0, 0.0, 0.0, 0.87, 2.2, 1.66, 1.6, 0.76, -0.0, -0.0, -0.0, -0.0, -0.0, 0.0, 1.79, 3.58, 4.47, 4.85, 5.29, 5.29, 5.09, -6.34, -6.33, -6.33, -6.33, -6.71, -6.71, -7.61, -7.61, -7.95, -7.27, -6.44, -6.4, -9.2, -9.43, -8.64, -7.48, -7.78, -7.24, -6.45, -6.7, -6.69, -5.69, -5.2, -5.93, -6.33, -5.69, -5.75, -7.15, -8.85, -9.83, -10.73, -12.07, -12.47, -11.84, -10.95, -10.43, -9.6, -8.22, -6.23, -6.23, -8.6, -9.63, -9.2, -8.15, -7.07, -6.44, -6.87, -5.72, -5.76, -5.06, -4.8, -4.07, -3.95, -3.16, -3.16, -3.29, -2.34, -2.34, -2.44, -1.64, -1.58, -0.82, -0.79, 0.0, 0.0, 0.0, 1.63, 2.41, 2.31, 2.41, 2.41, 1.42, 0.0, 0.0, 0.0, -0.77, -0.79, -0.81, -0.8, -0.76, 1.79, 0.72, -0.0, -0.0, -0.0, -0.79, -0.79, -0.98, -1.74, -1.6, 0.0, 2.68, 4.47, 5.81, 5.81, 5.75, 5.75, 5.59, -6.34, -6.33, -6.33, -6.33, -6.71, -6.71, -7.33, -7.61, -7.93, -7.27, -7.35, -7.76, -8.27, -9.63, -11.42, -10.79, -10.3, -10.98, -10.23, -10.04, -10.16, -9.3, -9.08, -8.24, -7.68, -6.97, -5.31, -6.58, -8.94, -9.83, -10.22, -11.12, -11.12, -10.66, -10.66, -9.54, -8.17, -4.57, 0.0, 0.0, -4.85, -8.14, -8.55, -7.42, -6.44, -6.82, -6.44, -5.77, -5.1, -4.96, -4.6, -4.83, -4.92, -3.95, -4.13, -3.29, -3.29, -3.19, -3.19, -3.19, -2.34, -2.31, -1.14, 0.0, 0.81, 2.28, 3.25, 3.69, 3.53, 2.31, 0.76, 0.0, -1.41, -2.18, -2.87, -2.14, -2.41, -2.39, -2.12, -0.78, 2.98, 4.4, -0.0, -0.73, -2.2, -2.2, -2.2, -3.16, -2.6, 0.0, 2.68, 4.47, 5.81, 6.26, 6.26, 6.21, 6.21, 6.02, -6.34, -6.61, -6.33, -6.33, -6.71, -6.71, -7.33, -7.61, -7.93, -7.27, -7.44, -8.0, -8.73, -9.02, -11.03, -11.28, -12.03, -10.3, -9.92, -10.0, -12.79, -12.62, -12.27, -10.98, -10.96, -9.42, -7.27, -6.13, -7.97, -8.49, -8.41, -8.77, -8.33, -7.54, -5.09, -5.2, -4.24, 0.0, 2.97, 2.53, 0.0, -5.51, -8.63, -9.21, -8.15, -6.82, -5.77, -5.37, -4.95, -4.26, -4.12, -4.0, -4.2, -4.07, -3.95, -4.13, -4.01, -4.87, -4.58, -4.87, -4.01, -2.59, 0.0, 2.4, 4.12, 5.38, 5.64, 5.52, 4.07, 1.62, 0.0, -2.14, -4.17, -4.94, -4.94, -5.02, -4.4, -3.95, -3.15, 0.82, 5.72, 6.68, 4.29, -1.8, -3.07, -3.07, -3.16, -1.0, 0.89, 3.51, 5.64, 6.94, 6.66, 6.71, 6.71, 6.26, 6.21, 6.02, -6.34, -6.34, -6.33, -6.33, -6.71, -6.71, -7.33, -7.61, -7.61, -7.27, -7.51, -8.29, -8.78, -8.85, -7.95, -7.33, -7.3, -7.86, -8.94, -9.38, -9.1, -8.72, -8.55, -11.93, -10.47, -9.69, -8.85, -3.57, -5.49, -5.2, -5.36, -6.51, -6.45, -2.98, 0.95, 2.0, 1.9, 3.22, 2.68, 2.53, 1.83, -0.99, -6.51, -9.11, -8.22, -6.82, -5.93, -5.37, -4.75, -3.91, -3.4, -3.27, -3.15, -3.32, -3.32, -2.35, -2.47, -2.39, -3.95, -4.71, -2.67, 0.0, 4.11, 6.44, 7.41, 8.42, 8.38, 7.97, 5.9, 3.21, 2.11, -0.72, -5.09, -7.24, -7.24, -6.45, -5.76, -4.83, -1.52, 4.01, 7.06, 6.64, 5.76, 0.0, -1.26, -1.79, 0.0, 3.04, 5.16, 6.55, 7.28, 7.06, 6.85, 6.65, 6.26, 6.26, 5.81, 5.75, -6.34, -6.34, -6.61, -6.33, -6.97, -6.97, -6.97, -7.61, -7.61, -7.59, -7.81, -8.15, -8.78, -9.17, -8.59, -7.55, -6.25, -6.29, -6.08, -6.67, -6.67, -6.06, -6.08, -4.83, -3.8, -3.35, -3.15, -2.17, -1.65, -1.03, -1.63, -2.76, -2.41, 1.0, 3.58, 4.02, 3.2, 3.58, 2.95, 1.83, 0.81, 0.0, -3.58, -6.98, -7.74, -7.21, -6.8, -5.93, -4.74, -3.45, -3.0, -3.09, -2.99, -1.55, 0.0, 1.41, 1.23, 0.0, -1.7, -2.97, 2.68, 5.75, 7.35, 8.0, 8.55, 8.95, 9.27, 9.3, 8.38, 7.27, 6.83, 2.64, -3.63, -7.42, -7.41, -7.35, -5.89, -3.11, 1.47, 6.06, 6.64, 5.38, 4.28, 4.0, 2.4, 1.72, 3.35, 5.59, 6.55, 6.98, 6.79, 6.54, 6.94, 6.51, 6.26, 5.36, 4.92, 4.85, -6.34, -6.34, -6.61, -6.33, -6.97, -6.97, -6.97, -7.33, -7.32, -7.59, -7.86, -8.19, -8.5, -9.17, -9.5, -8.83, -7.73, -7.06, -5.8, -5.64, -5.04, -5.04, -4.36, -3.86, -2.82, -2.17, -1.71, -1.69, -1.16, -0.57, -1.08, -1.62, 0.0, 0.99, 2.97, 3.47, 3.2, 3.93, 2.53, 0.81, 0.0, 0.0, -2.48, -6.23, -8.17, -8.6, -5.82, -4.11, -2.4, -1.3, -1.14, -2.66, -1.32, 0.0, 3.16, 3.22, 2.73, 1.41, 0.0, 1.2, 6.94, 8.41, 9.03, 8.63, 7.89, 7.89, 7.6, 7.28, 8.37, 7.35, 7.27, 4.11, -3.13, -6.26, -6.94, -5.6, -2.68, 1.7, 5.69, 6.53, 5.64, 4.2, 3.44, 2.83, 3.51, 3.27, 4.43, 5.59, 6.07, 6.07, 5.86, 6.36, 6.54, 6.4, 5.64, 5.36, 4.47, 4.47, -6.34, -6.34, -6.61, -6.33, -6.33, -6.97, -6.97, -6.71, -7.32, -7.3, -7.86, -7.9, -8.53, -9.17, -9.21, -9.84, -9.47, -8.11, -7.48, -6.43, -5.6, -5.17, -4.48, -3.96, -3.53, -3.36, -2.92, -2.33, -2.33, -1.76, -1.72, -1.66, -2.23, 0.0, 1.8, 4.24, 5.2, 4.19, 2.6, 0.0, 0.0, -1.23, -2.6, -3.79, -5.6, -5.64, -1.9, 2.21, 2.0, 0.0, 0.0, 0.0, 1.41, 4.24, 4.24, 2.84, 0.0, -1.47, -0.82, 3.79, 7.55, 7.74, 7.2, 6.52, 6.52, 6.13, 6.13, 5.37, 4.75, 4.96, 4.83, 1.13, -3.6, -4.8, -3.13, 1.9, 4.29, 6.24, 6.42, 5.52, 4.71, 4.07, 2.83, 2.17, 1.4, 2.31, 4.01, 5.59, 5.64, 6.51, 6.28, 6.36, 6.54, 6.64, 5.82, 4.92, 4.47, 4.47, -6.34, -6.34, -6.34, -6.33, -6.33, -6.33, -6.58, -6.33, -6.7, -7.3, -7.9, -8.22, -8.53, -8.87, -9.21, -9.22, -9.47, -9.17, -8.77, -7.45, -7.06, -6.43, -5.77, -5.25, -4.7, -4.13, -3.55, -3.42, -2.87, -1.74, -1.17, -1.72, -1.67, -1.09, 0.0, 2.41, 4.19, 4.11, 2.8, 0.0, -1.7, -2.29, -2.49, -1.41, -1.7, 0.0, 4.92, 4.92, 3.6, 3.16, 1.55, 1.41, 2.48, 3.72, 2.48, 1.41, 0.0, -2.26, 0.0, 4.46, 6.79, 7.44, 6.28, 4.75, 3.45, 2.49, 3.22, 3.76, 3.68, 3.91, 2.6, -1.26, -3.58, -0.0, 4.66, 7.44, 7.9, 8.12, 6.45, 5.41, 4.6, 4.07, 2.35, 1.67, 0.8, 1.63, 4.01, 5.34, 6.02, 6.02, 6.28, 6.54, 6.64, 6.32, 6.0, 5.16, 4.92, 4.92, -6.63, -6.34, -6.34, -6.61, -6.33, -6.33, -6.33, -6.33, -6.7, -6.98, -7.6, -7.93, -8.53, -8.58, -9.21, -9.5, -9.48, -9.45, -9.42, -8.77, -8.11, -7.48, -6.6, -5.7, -4.03, -3.44, -2.87, -2.29, -1.78, -1.15, -1.15, -1.15, -1.72, -2.13, -1.55, 0.0, 2.53, 2.4, 0.0, -1.14, -2.32, -2.4, -1.14, 0.0, 1.19, 5.2, 5.36, 4.92, 4.24, 2.73, 2.6, 3.76, 4.02, 3.45, 2.49, 1.18, 0.0, 0.0, 2.46, 4.66, 6.95, 5.72, 4.71, 3.6, 2.54, 1.63, 2.32, 1.3, 1.41, 2.8, 0.0, -0.85, 0.0, 4.84, 7.41, 8.31, 8.12, 7.9, 7.12, 6.09, 4.8, 4.07, 3.32, 2.18, 1.55, 2.47, 3.79, 5.59, 6.02, 6.16, 6.0, 6.54, 6.64, 6.7, 6.44, 5.43, 5.16, 5.16, -6.63, -6.34, -6.34, -6.34, -6.33, -6.33, -6.33, -6.33, -6.98, -6.7, -6.98, -7.93, -8.56, -8.58, -8.59, -8.86, -8.83, -9.19, -8.77, -8.33, -7.66, -7.24, -6.36, -4.58, -2.3, -1.76, -1.79, -1.78, -1.76, -1.75, -2.38, -1.79, -2.4, -3.5, -2.83, -1.55, -0.88, -1.41, -2.6, -2.4, -1.19, -1.27, 0.0, 1.6, 4.09, 5.2, 5.64, 4.46, 3.79, 2.6, 3.76, 3.45, 3.68, 3.68, 2.26, 1.25, 1.14, 2.33, 3.52, 4.66, 5.46, 4.66, 3.52, 2.33, 1.2, 0.79, 0.0, 0.0, -1.41, 0.0, 0.0, 0.8, 3.88, 6.2, 6.97, 6.45, 6.33, 6.43, 6.1, 5.4, 4.68, 3.95, 3.32, 2.9, 3.33, 4.43, 4.84, 5.09, 5.2, 5.75, 6.4, 6.4, 6.64, 6.7, 6.08, 5.46, 5.86, 5.86, -6.63, -6.34, -6.34, -6.34, -6.33, -6.33, -6.33, -6.33, -6.61, -6.7, -6.7, -7.32, -7.95, -8.58, -8.87, -9.77, -8.58, -9.2, -8.14, -7.03, -6.52, -6.96, -6.4, -5.62, -4.0, -4.6, -3.44, -4.75, -4.79, -4.07, -4.01, -4.23, -4.09, -4.73, -3.39, -1.55, -1.8, -2.84, -4.26, -2.26, -0.82, 0.0, 1.3, 1.55, 4.11, 5.01, 5.01, 4.11, 2.6, 2.6, 2.49, 3.45, 2.66, 2.66, 2.4, 2.54, 2.21, 3.35, 4.66, 4.66, 4.66, 3.52, 2.46, 1.65, 0.8, 0.0, 0.0, -0.83, -1.73, -1.2, 0.0, 2.44, 4.61, 5.45, 4.71, 3.23, 2.28, 1.6, 2.45, 2.37, 2.39, 1.6, 2.54, 2.9, 4.16, 4.29, 4.81, 4.81, 5.2, 5.05, 5.82, 6.8, 6.44, 6.7, 6.06, 5.82, 5.75, 5.75, -6.63, -6.34, -6.34, -6.34, -6.61, -6.33, -6.33, -6.33, -6.61, -6.7, -6.7, -6.98, -7.61, -8.24, -8.91, -8.87, -9.21, -9.21, -9.49, -7.82, -7.7, -7.66, -8.4, -8.86, -8.61, -8.5, -7.82, -6.88, -7.03, -6.96, -6.44, -5.74, -5.86, -4.63, -2.71, -1.61, -1.61, -2.2, -1.65, -0.55, 0.0, 1.12, 1.69, 1.63, 2.18, 3.68, 3.45, 2.8, 2.8, 2.8, 2.32, 2.49, 2.49, 2.66, 2.47, 3.2, 3.52, 3.69, 4.12, 3.7, 2.33, 1.2, 1.2, 0.0, 0.0, 0.0, -0.89, -0.89, -0.84, 0.0, 0.79, 3.04, 3.95, 3.07, 1.59, 0.0, -1.51, -2.31, -0.8, 0.0, 0.0, 0.81, 1.75, 3.2, 4.16, 4.36, 5.09, 5.09, 4.84, 4.84, 5.75, 6.4, 6.44, 6.79, 6.35, 5.77, 5.82, 5.82, -6.35, -6.34, -6.34, -6.34, -6.61, -6.33, -6.33, -6.33, -6.33, -6.7, -6.98, -6.98, -7.61, -7.6, -8.59, -9.21, -9.22, -9.21, -8.58, -10.34, -9.8, -8.81, -10.13, -10.13, -10.47, -9.84, -8.81, -8.16, -8.16, -7.7, -7.0, -6.77, -6.48, -3.89, -1.13, -0.99, -1.2, -1.13, -1.16, 0.0, 0.56, 1.63, 2.25, 2.17, 2.26, 2.54, 2.66, 2.49, 2.49, 2.32, 1.23, 1.23, 2.32, 4.02, 3.68, 3.9, 4.03, 4.22, 4.44, 2.21, 1.14, 0.0, 0.0, 0.0, -0.84, -0.79, -0.83, -0.83, 0.0, 0.85, 2.39, 4.06, 3.83, 1.51, -0.8, -3.1, -6.48, -6.31, -5.6, -3.07, -1.56, 0.0, 1.65, 3.0, 4.29, 4.74, 5.06, 5.06, 4.74, 4.46, 4.84, 5.82, 6.44, 6.7, 6.35, 5.72, 5.69, 5.69, -6.35, -6.63, -6.34, -6.34, -6.61, -6.33, -6.33, -6.33, -6.33, -6.98, -6.98, -6.71, -7.61, -7.6, -7.96, -8.59, -8.85, -9.5, -9.5, -9.84, -9.48, -8.81, -9.22, -10.45, -11.1, -10.74, -9.4, -8.33, -7.7, -6.82, -6.4, -6.36, -5.77, -2.75, -0.54, -0.57, -0.54, -0.53, -0.51, 0.0, 0.57, 1.16, 1.67, 1.67, 2.12, 2.18, 2.4, 1.25, 1.1, 1.23, 1.23, 2.6, 3.76, 4.43, 4.74, 5.06, 4.95, 5.59, 4.44, 2.54, 0.89, 0.0, -0.8, -0.8, -0.8, -0.84, -0.89, 0.0, 2.64, 5.03, 5.72, 6.97, 6.1, 3.23, -3.27, -5.13, -6.44, -7.8, -7.73, -6.29, -3.25, 0.0, 2.51, 4.29, 5.15, 5.82, 5.43, 5.43, 5.06, 4.81, 4.73, 5.46, 6.08, 6.35, 6.35, 5.72, 6.21, 6.21, -6.35, -6.35, -6.63, -6.34, -6.34, -6.33, -6.33, -6.33, -6.33, -6.98, -6.98, -6.97, -7.24, -7.6, -7.59, -8.22, -8.2, -8.85, -9.22, -9.84, -9.19, -8.37, -8.18, -8.87, -10.13, -9.84, -9.4, -8.27, -7.12, -6.3, -5.67, -5.21, -4.65, -2.73, -0.51, -0.53, -0.53, 0.0, 0.0, 0.0, 0.54, 1.14, 1.63, 1.73, 2.32, 2.18, 1.14, 0.0, 0.0, 0.0, 2.6, 4.11, 5.01, 5.01, 5.01, 4.74, 4.01, 4.95, 4.46, 2.51, 0.83, 0.0, -1.75, -2.54, -2.4, -1.73, 0.0, 2.76, 5.82, 6.44, 4.74, 4.29, 2.49, 2.4, 0.0, 0.0, -1.55, -3.79, -5.59, -6.23, -2.99, 0.78, 3.63, 5.21, 5.46, 5.82, 5.82, 5.43, 5.77, 5.06, 4.75, 5.09, 5.72, 6.06, 6.35, 5.72, 5.69, 5.69, -6.35, -6.35, -6.35, -6.34, -6.34, -6.61, -6.33, -6.33, -6.33, -6.71, -6.71, -6.97, -6.96, -7.6, -7.59, -7.57, -7.95, -8.2, -8.85, -9.21, -9.45, -8.3, -7.45, -7.55, -8.23, -8.86, -8.81, -8.3, -7.8, -7.12, -5.78, -5.3, -4.55, -3.39, -2.1, -1.07, -0.55, -0.5, 0.0, 0.0, 0.55, 1.16, 1.14, 1.8, 1.84, 1.16, 0.0, 0.0, 0.0, 1.41, 3.76, 5.36, 5.01, 4.43, 4.43, 3.76, 3.35, 3.22, 3.68, 3.4, 0.83, 0.0, -1.73, -1.63, -1.72, 0.0, 4.54, 7.81, 7.35, 5.82, 2.76, -1.16, 0.77, 3.19, 4.32, 4.6, 3.52, 1.07, -1.18, -2.29, 0.0, 2.15, 3.83, 4.8, 5.6, 5.43, 5.46, 5.82, 5.43, 5.77, 5.06, 4.36, 5.06, 5.37, 5.72, 5.72, 5.46, 5.46, -6.35, -6.35, -6.35, -6.34, -6.34, -6.34, -6.33, -6.33, -6.33, -6.33, -6.71, -6.97, -6.96, -7.6, -7.59, -7.57, -7.83, -7.55, -8.2, -8.85, -8.81, -9.0, -8.3, -7.7, -7.53, -7.57, -7.53, -8.14, -7.63, -7.6, -7.12, -5.94, -5.3, -4.74, -3.39, -2.19, -1.61, -1.1, 0.0, 0.0, 0.53, 0.53, 1.14, 1.12, 1.14, 0.53, -0.53, 0.0, 0.53, 1.7, 3.22, 3.68, 3.76, 3.76, 3.76, 2.6, 2.6, 0.88, 0.0, 1.32, 1.18, 0.0, 0.0, 0.0, 0.81, 4.8, 7.63, 7.89, 7.42, 2.6, 0.0, -0.81, 0.0, 3.14, 4.61, 4.87, 4.31, 3.07, 1.11, 0.0, 2.0, 2.68, 3.51, 4.24, 5.09, 5.2, 5.21, 5.82, 5.15, 5.06, 4.95, 4.29, 4.29, 5.06, 5.06, 5.43, 4.75, 4.75, -6.35, -6.35, -6.35, -6.63, -6.34, -6.34, -6.61, -6.33, -6.33, -6.33, -6.71, -6.97, -6.96, -7.6, -7.59, -7.57, -7.83, -7.55, -7.55, -8.2, -8.43, -8.37, -8.3, -8.3, -8.14, -8.18, -7.53, -7.5, -7.7, -7.42, -7.16, -6.44, -5.78, -5.34, -4.62, -3.89, -2.8, -1.67, -0.57, 0.0, 0.0, 0.0, 0.57, 0.56, 1.1, 0.56, 0.0, 0.0, 0.57, 1.14, 1.7, 1.73, 2.32, 2.8, 2.6, 2.6, 1.41, 0.0, 0.0, 0.0, 1.25, 1.14, 0.89, 0.89, 3.35, 6.98, 8.33, 7.35, 5.06, 2.47, 0.0, 0.0, 0.0, 1.6, 4.1, 4.71, 5.11, 2.76, 0.82, 1.26, 2.24, 2.54, 3.13, 4.02, 5.31, 6.02, 5.75, 5.43, 4.81, 4.43, 4.16, 4.29, 4.29, 4.36, 4.74, 4.74, 4.11, 4.11, -6.35, -6.35, -6.35, -6.35, -6.34, -6.34, -6.61, -6.33, -6.33, -6.33, -6.71, -6.97, -6.96, -7.22, -7.59, -7.57, -7.57, -7.55, -7.55, -7.55, -7.53, -8.16, -8.37, -8.33, -8.11, -8.37, -8.14, -7.48, -7.7, -7.0, -7.0, -7.0, -6.33, -5.88, -5.11, -4.54, -3.27, -2.28, -1.63, -1.16, -0.56, 0.0, 0.0, 0.55, 0.55, 0.58, 0.54, 0.0, 0.0, 0.53, 0.53, 0.55, 0.59, 1.16, 0.98, 0.96, 0.0, 0.0, 0.0, 0.0, 0.0, 0.8, 1.14, 1.6, 5.75, 6.98, 7.21, 4.74, 3.47, 1.84, 0.89, 0.0, 0.0, 0.82, 2.41, 3.91, 3.96, 2.06, 0.0, -0.0, 1.2, 1.58, 2.6, 4.41, 5.81, 6.22, 6.28, 5.75, 5.21, 4.43, 3.9, 3.79, 4.42, 4.65, 4.36, 3.64, 3.43, 3.43, -6.35, -6.35, -6.35, -6.35, -6.34, -6.34, -6.34, -6.33, -6.33, -6.33, -6.71, -6.97, -6.96, -7.22, -7.59, -7.57, -7.57, -7.55, -7.55, -7.55, -7.53, -7.5, -7.7, -7.7, -7.7, -8.37, -8.79, -8.11, -8.33, -7.66, -7.2, -7.0, -6.56, -5.92, -5.14, -4.38, -3.32, -2.3, -1.65, -1.16, -1.11, -0.56, 0.0, 0.0, 0.57, 1.14, 0.54, 0.0, 0.0, 0.0, 0.0, 0.0, 0.0, 0.0, 0.0, 0.0, 0.0, 0.0, 0.0, 0.82, 0.0, 0.0, 0.0, 1.72, 5.82, 8.17, 5.82, 3.33, 0.89, 0.0, 0.0, 0.0, -0.77, 0.0, 0.0, 0.0, 0.8, 0.81, 0.0, -0.0, -0.0, -0.0, 2.15, 5.16, 6.26, 6.66, 6.36, 5.43, 5.21, 4.11, 3.47, 3.2, 4.03, 3.79, 3.55, 2.88, 2.98, 2.98, -6.35, -6.35, -6.35, -6.35, -6.34, -6.34, -6.34, -6.61, -6.33, -6.33, -6.33, -6.97, -6.7, -6.96, -6.94, -7.32, -7.57, -7.55, -7.55, -7.55, -7.55, -7.53, -7.73, -7.7, -7.7, -7.7, -7.48, -8.14, -8.11, -8.33, -7.66, -7.0, -6.56, -5.92, -5.17, -4.4, -3.35, -2.21, -1.67, -1.65, -1.16, -1.11, -0.57, 0.0, 0.85, 1.61, 1.14, 0.0, 0.0, -0.53, -1.08, -1.13, -0.65, 0.0, -0.6, -0.57, 0.0, 0.0, 1.8, 0.88, 0.0, -1.65, -0.79, 2.99, 6.7, 6.8, 6.44, 4.16, 0.82, -0.82, -0.89, -0.85, -1.6, -2.35, -3.36, -3.16, -2.34, 0.0, 0.0, 0.0, -1.34, -0.0, 2.24, 4.44, 6.22, 6.07, 5.44, 4.84, 4.54, 3.63, 3.47, 2.51, 2.18, 2.9, 3.0, 2.29, 2.2, 2.2, -6.64, -6.64, -6.35, -6.35, -6.63, -6.34, -6.34, -6.61, -6.33, -6.33, -6.33, -6.97, -6.7, -6.96, -6.94, -7.32, -7.57, -7.31, -7.55, -7.55, -7.55, -7.53, -7.5, -7.73, -7.7, -7.7, -7.48, -7.73, -8.14, -8.11, -7.45, -7.0, -6.56, -5.92, -5.14, -4.6, -3.52, -2.86, -2.19, -1.75, -1.73, -1.11, -1.12, -1.18, 0.0, 0.0, 0.0, 0.0, 0.0, -0.0, -0.32, -0.45, -1.26, -0.95, -0.63, -0.6, 0.0, 1.24, 1.74, 0.0, -1.7, -2.51, 0.0, 4.54, 5.82, 5.43, 6.21, 5.93, 3.35, 0.0, -1.72, -0.84, 0.0, -0.82, -2.31, -4.17, -4.06, -2.44, -0.8, 0.0, -0.76, -0.55, 1.7, 4.47, 5.01, 5.05, 4.4, 3.84, 3.07, 2.98, 2.04, 1.55, 0.76, 2.4, 2.12, 1.6, 2.3, 2.3, -6.35, -6.35, -6.35, -6.35, -6.35, -6.34, -6.34, -6.34, -6.33, -6.33, -6.33, -6.33, -6.7, -6.96, -6.94, -7.19, -7.57, -7.57, -7.55, -7.55, -7.55, -7.53, -7.76, -7.73, -7.7, -7.7, -7.48, -7.06, -7.06, -7.03, -7.03, -7.03, -6.36, -5.92, -5.14, -4.57, -3.97, -2.83, -2.19, -1.75, -1.73, -1.73, -1.65, -1.59, -1.76, -3.32, -3.11, -1.08, 0.0, -0.0, -0.0, 0.0, 0.0, -0.63, -0.63, 0.0, 0.0, 0.6, 0.8, 0.0, -0.81, -0.82, 2.6, 4.54, 3.63, 3.79, 3.58, 4.09, 4.11, 1.3, 0.0, 0.82, 2.54, 2.41, 0.8, -2.37, -3.82, -3.91, -2.34, -0.77, 0.0, 0.0, 2.28, 4.57, 4.6, 3.45, 2.23, 2.15, 2.3, 1.55, 0.72, 0.71, 0.0, 0.0, 0.74, 0.72, 2.3, 2.3, -6.35, -6.35, -6.35, -6.35, -6.35, -6.34, -6.34, -6.34, -6.61, -6.33, -6.33, -6.33, -6.97, -6.96, -6.94, -7.19, -7.32, -7.57, -7.31, -7.55, -7.13, -6.88, -7.53, -7.5, -7.73, -7.7, -7.48, -7.1, -7.32, -6.43, -7.06, -7.03, -7.03, -6.4, -5.8, -5.0, -4.12, -3.49, -2.83, -2.17, -2.28, -1.73, -1.73, -1.75, -2.21, -3.35, -2.83, -1.16, 0.0, 0.0, 0.0, 0.0, 0.6, 0.0, 0.0, 0.0, 0.0, 0.0, 0.57, 0.0, 0.0, 0.88, 3.22, 2.4, 2.4, 1.7, 0.79, 0.0, 0.0, 1.23, 1.6, 3.47, 3.91, 3.45, 2.33, 0.0, -2.28, -3.11, -1.68, 0.0, 0.74, 2.14, 3.6, 3.5, 3.47, 2.28, 1.16, 0.51, 0.79, 0.81, 0.72, 0.0, 0.0, 0.0, 0.0, 0.0, 2.07, 2.07, -6.35, -6.35, -6.35, -6.35, -6.35, -6.35, -6.34, -6.34, -6.61, -6.33, -6.33, -6.33, -6.97, -6.7, -6.94, -6.94, -6.92, -7.16, -7.16, -7.55, -7.13, -6.88, -7.53, -7.76, -7.73, -7.48, -7.73, -7.1, -6.9, -7.93, -6.9, -6.88, -7.1, -7.1, -6.25, -5.2, -4.38, -3.94, -2.8, -2.8, -2.28, -2.25, -2.25, -2.28, -2.83, -2.83, -2.28, -1.73, -0.56, -0.57, -0.56, 0.0, 0.0, 0.0, 0.0, 0.0, 0.0, 0.0, 0.57, 0.54, 0.61, 1.83, 2.6, 1.83, 0.88, 0.0, 0.0, 0.0, 0.0, 0.0, 2.35, 3.2, 1.63, 0.0, 0.0, 0.0, 0.0, 0.0, 0.71, 1.45, 2.1, 2.81, 2.76, 2.09, 1.75, 1.16, 0.0, 0.0, 0.0, 0.0, 0.0, 0.0, 0.0, 0.0, 0.0, 0.0, 2.41, 2.41, -6.35, -6.35, -6.35, -6.35, -6.35, -6.35, -6.34, -6.34, -6.34, -6.33, -6.33, -6.33, -6.97, -6.7, -6.96, -6.94, -7.19, -6.92, -7.16, -6.9, -7.13, -7.13, -7.53, -7.76, -7.5, -7.73, -7.5, -7.76, -7.53, -7.53, -6.88, -6.9, -6.92, -6.27, -5.64, -5.26, -4.4, -3.94, -3.45, -2.93, -2.77, -2.77, -2.77, -2.77, -2.8, -2.8, -2.28, -1.73, -1.73, -1.11, -1.06, -0.59, 0.0, 0.0, 0.0, 0.0, 0.0, 0.0, 0.54, 0.54, 1.41, 1.55, 1.3, 1.3, 0.0, 0.0, 0.0, 0.0, 0.0, 0.0, 1.63, 2.4, 0.0, -1.62, -2.33, 0.0, 1.63, 3.23, 3.6, 2.13, 1.38, 0.71, 0.0, 0.0, 0.0, 0.0, -0.56, -1.14, -0.76, 0.0, 0.81, 0.0, 0.0, 0.0, 0.0, 0.0, 3.16, 3.16, -6.35, -6.35, -6.35, -6.08, -6.35, -6.35, -6.34, -6.34, -6.34, -6.61, -6.33, -6.33, -6.97, -6.97, -6.96, -6.94, -7.19, -6.92, -7.16, -7.16, -6.9, -7.13, -7.1, -7.76, -7.5, -7.5, -7.5, -7.5, -7.5, -8.16, -7.5, -6.88, -6.27, -5.67, -5.06, -4.45, -4.03, -3.35, -3.32, -3.45, -3.27, -3.42, -2.9, -2.9, -2.77, -2.77, -2.39, -2.28, -1.73, -1.73, -1.75, -1.14, -1.18, -0.53, 0.0, 0.0, 0.0, 0.0, 0.0, 0.0, 0.65, 1.41, 1.55, 0.0, 0.0, 0.0, 0.88, 0.81, 0.88, 0.82, 1.41, 1.1, 0.0, -0.82, -1.61, 0.0, 3.04, 4.81, 4.07, 2.3, 0.0, -0.71, -1.4, -1.43, -0.72, -0.56, -1.15, -2.23, -0.82, 0.73, 0.81, 0.78, 0.0, 0.0, 0.0, 1.47, 3.84, 3.84, -6.35, -6.35, -6.35, -6.35, -6.35, -6.35, -6.35, -6.34, -6.34, -6.61, -6.33, -6.33, -6.97, -6.97, -6.7, -6.96, -6.94, -6.92, -6.92, -7.16, -6.9, -7.13, -7.13, -7.53, -7.5, -7.5, -7.5, -7.06, -7.5, -7.73, -7.73, -6.85, -6.25, -5.67, -4.44, -3.4, -3.21, -2.75, -2.73, -3.35, -3.3, -3.42, -3.42, -2.9, -2.9, -2.25, -2.25, -2.25, -2.25, -2.28, -2.17, -1.69, -1.61, -1.2, -1.14, -0.61, -0.57, 0.0, 0.0, 0.0, 0.0, 0.65, 0.0, 0.0, 0.0, 1.23, 0.81, 0.96, 0.82, 0.0, 0.0, 0.0, 1.11, 0.8, 0.0, 0.0, 0.78, 2.41, 2.37, 0.72, 0.0, -0.72, -1.44, -1.39, -1.48, -1.48, -2.25, -2.23, 0.82, 2.4, 1.6, 0.74, 0.0, 0.0, 0.0, 2.2, 3.84, 3.84, -6.35, -6.35, -6.35, -6.35, -6.35, -6.35, -6.35, -6.34, -6.34, -6.61, -6.33, -6.33, -6.97, -6.97, -6.7, -6.96, -6.94, -7.19, -6.92, -7.16, -7.16, -6.9, -7.13, -7.53, -7.76, -7.5, -7.5, -6.85, -7.1, -7.5, -7.5, -6.85, -6.22, -5.86, -4.63, -3.81, -2.96, -2.77, -2.29, -2.92, -2.86, -3.49, -3.3, -3.29, -2.28, -2.25, -2.77, -2.9, -2.9, -2.93, -2.83, -2.33, -2.26, -1.76, -1.67, -1.16, -1.08, -0.57, 0.0, 0.0, 0.0, 0.0, 0.0, 0.0, 0.0, 0.0, 0.81, 0.0, 0.0, 0.0, 0.0, 0.0, 1.14, 2.28, 1.55, 0.0, -0.76, -0.8, -1.58, -1.4, -0.69, 0.0, 0.0, -0.73, -0.7, -1.39, -2.06, 0.0, 3.27, 3.69, 2.12, 0.74, 0.0, 0.0, 0.88, 3.07, 3.07, 3.84, -6.35, -6.35, -6.35, -6.35, -6.08, -6.35, -6.35, -6.34, -6.34, -6.61, -6.33, -6.33, -6.71, -6.97, -6.7, -6.96, -6.96, -6.94, -6.92, -6.92, -7.16, -6.9, -6.9, -7.13, -7.53, -7.76, -7.5, -7.5, -7.1, -7.1, -7.5, -7.1, -6.9, -6.05, -5.26, -3.97, -3.56, -2.73, -2.26, -2.26, -2.73, -2.89, -3.56, -3.95, -2.3, -2.25, -2.75, -3.39, -3.39, -3.42, -3.49, -2.86, -2.75, -2.29, -1.67, -1.7, -1.08, -1.11, -0.53, 0.0, 0.0, 0.0, 0.0, -0.88, 0.0, 0.0, 0.0, 0.0, 0.0, 0.0, 0.0, 0.0, 0.0, 2.41, 3.17, 2.39, 0.0, -3.11, -4.38, -3.47, -2.09, -0.71, 0.0, 0.0, 0.0, 0.0, 0.0, 2.28, 4.5, 3.69, 2.23, 1.55, 0.74, 0.78, 1.7, 3.07, 2.98, 3.07, -6.35, -6.35, -6.35, -6.35, -6.08, -6.35, -6.35, -6.34, -6.34, -6.34, -6.61, -6.33, -6.71, -6.97, -6.97, -6.96, -6.96, -6.94, -7.19, -6.92, -6.92, -7.16, -6.9, -7.13, -6.88, -7.53, -7.76, -7.06, -7.1, -6.88, -7.1, -7.1, -6.9, -6.29, -5.44, -4.63, -3.97, -3.32, -2.86, -2.71, -2.89, -2.89, -3.4, -4.08, -4.25, -3.42, -3.86, -4.54, -5.0, -4.57, -3.97, -3.37, -3.42, -3.0, -2.36, -1.73, -1.76, -1.13, -0.61, -0.65, 0.0, -0.65, -0.61, -1.41, -1.41, -1.23, -0.88, -0.88, 0.0, 0.0, 0.0, 0.0, 0.0, 0.0, 3.47, 6.2, 4.71, 0.0, -3.29, -3.46, -2.21, -0.72, 0.0, 1.5, 2.21, 2.82, 3.61, 3.91, 3.68, 2.99, 2.31, 2.12, 1.55, 1.52, 1.7, 2.53, 2.4, 2.98, -6.35, -6.35, -6.35, -6.35, -6.35, -6.35, -6.35, -6.35, -6.34, -6.34, -6.61, -6.33, -6.33, -6.97, -6.97, -6.7, -6.96, -6.94, -6.94, -6.92, -6.92, -7.16, -6.9, -6.9, -7.13, -6.88, -7.1, -7.1, -7.1, -6.88, -6.88, -6.88, -6.9, -6.29, -5.69, -5.04, -4.4, -3.94, -3.3, -3.49, -3.32, -3.35, -3.4, -4.08, -5.36, -6.56, -5.67, -5.67, -5.7, -5.08, -3.81, -3.42, -3.45, -3.22, -2.82, -2.4, -1.76, -1.13, -1.16, -0.53, -0.65, -0.65, -2.98, -2.6, -1.41, -1.41, -0.88, -1.23, -0.88, 0.0, 0.0, 0.0, 0.0, 0.0, 1.14, 4.72, 6.2, 4.71, 1.56, 0.0, 0.0, 1.44, 2.11, 2.95, 3.53, 3.47, 3.68, 2.99, 2.28, 2.28, 2.25, 1.54, 1.49, 1.52, 1.7, 1.83, 1.7, 1.7, -6.06, -6.06, -6.35, -6.35, -6.35, -6.35, -6.35, -6.35, -6.34, -6.34, -6.34, -6.33, -6.33, -6.97, -6.97, -6.7, -6.96, -6.96, -6.94, -7.19, -6.92, -6.92, -7.16, -6.9, -7.13, -6.88, -6.88, -6.88, -6.88, -6.43, -6.46, -6.46, -6.25, -6.29, -5.67, -5.04, -4.63, -4.4, -3.94, -3.94, -3.94, -3.97, -4.0, -4.45, -5.72, -6.08, -5.67, -5.04, -4.69, -3.84, -2.82, -2.84, -3.08, -3.22, -2.82, -2.4, -1.58, -1.6, -1.16, -1.16, -0.61, -1.16, -1.8, -2.6, -1.41, -1.14, 0.0, -1.23, 0.0, 0.0, 0.0, -0.89, -1.32, -1.72, -1.18, 0.0, 2.34, 4.66, 5.45, 4.58, 4.31, 4.4, 4.24, 3.53, 2.87, 2.37, 2.19, 1.48, 1.48, 1.48, 0.74, 0.75, 0.0, 0.82, 0.81, 0.81, 0.81, 0.81, -6.06, -6.06, -6.35, -6.35, -6.35, -6.08, -6.35, -6.35, -6.34, -6.34, -6.34, -6.61, -6.33, -6.71, -6.97, -6.7, -6.96, -6.96, -6.94, -6.94, -6.92, -6.92, -6.92, -6.9, -6.9, -7.13, -6.88, -6.43, -6.46, -6.46, -6.25, -6.5, -5.83, -5.64, -5.67, -5.69, -5.04, -4.6, -4.4, -3.94, -3.94, -3.94, -4.42, -4.66, -5.32, -5.69, -5.0, -4.38, -4.0, -2.8, -2.22, -1.98, -2.23, -2.6, -2.86, -2.86, -2.23, -1.6, -1.16, -1.16, -1.16, -1.33, -1.8, -2.8, -1.41, 0.0, 0.0, 0.0, 0.0, 0.0, 0.0, -0.78, -2.35, -2.51, -3.09, -2.44, -0.75, 1.61, 4.81, 6.47, 7.23, 6.4, 5.55, 4.17, 3.47, 2.1, 1.48, 1.42, 0.76, 0.0, 0.0, 0.0, 0.0, 0.0, 0.0, 0.0, 0.0, 0.0, -6.34, -6.34, -6.06, -6.35, -6.35, -6.08, -6.35, -6.35, -6.35, -6.34, -6.34, -6.61, -6.33, -6.71, -6.97, -6.97, -6.7, -6.96, -6.96, -6.94, -6.94, -6.92, -6.92, -7.16, -6.9, -7.13, -6.88, -6.43, -6.46, -6.46, -6.25, -5.83, -5.64, -5.23, -5.23, -5.26, -5.26, -5.04, -4.4, -4.63, -4.4, -4.4, -4.63, -4.63, -5.06, -5.26, -5.23, -4.54, -3.91, -3.35, -2.32, -2.22, -1.6, -2.23, -2.23, -2.48, -2.23, -1.84, -1.61, -1.16, -1.16, -1.13, -1.8, -1.23, 0.0, 0.0, 0.0, 0.81, 0.88, 0.0, 0.0, -1.72, -2.51, -3.4, -3.27, -2.44, -0.78, 0.83, 3.07, 5.62, 7.11, 7.29, 6.42, 5.02, 3.59, 2.87, 1.44, 0.74, 0.0, 0.0, 0.0, -0.72, 0.0, 0.0, 0.0, 0.79, 0.79, 0.79, -6.34, -6.34, -6.06, -6.35, -6.35, -6.35, -6.35, -6.35, -6.35, -6.34, -6.34, -6.34, -6.33, -6.33, -6.97, -6.97, -6.7, -6.96, -6.96, -6.7, -6.94, -7.19, -6.92, -6.92, -6.9, -6.9, -7.13, -6.43, -6.22, -6.46, -6.04, -5.62, -5.2, -5.02, -5.04, -5.04, -5.06, -4.63, -4.63, -4.63, -4.4, -4.6, -4.6, -5.29, -5.29, -5.04, -5.02, -5.0, -5.0, -4.6, -4.0, -2.77, -2.4, -2.48, -2.23, -2.84, -2.51, -2.23, -1.61, -1.61, -1.16, -1.13, -1.8, -1.11, 0.0, 0.0, 0.0, 0.0, -0.88, 0.0, -1.6, -2.47, -2.64, -2.51, -2.4, -1.58, -0.81, 0.0, 1.54, 3.96, 6.2, 7.0, 6.24, 5.17, 4.24, 2.91, 1.41, 0.0, 0.0, -1.05, -1.11, -0.82, 0.0, 0.0, 0.0, 1.6, 1.6, 1.6, -6.34, -6.34, -6.06, -6.35, -6.35, -6.35, -6.35, -6.35, -6.35, -6.34, -6.34, -6.34, -6.61, -6.33, -6.97, -6.97, -6.7, -6.96, -6.96, -6.96, -6.94, -6.94, -6.92, -6.92, -7.16, -6.9, -6.9, -7.13, -6.46, -6.46, -5.8, -5.62, -5.23, -5.26, -4.63, -4.66, -4.66, -4.66, -4.42, -4.63, -4.63, -4.63, -5.04, -5.04, -5.04, -5.04, -5.26, -5.02, -5.67, -5.23, -4.6, -4.0, -3.42, -2.82, -2.86, -2.86, -2.84, -2.23, -2.23, -1.61, -1.61, -1.13, -1.13, -0.59, 0.0, 0.0, 0.0, -1.41, -2.32, -2.6, -2.47, -2.47, -2.64, -2.51, -1.65, -0.8, -0.77, 0.0, 0.82, 3.16, 4.06, 4.91, 5.56, 5.73, 4.95, 2.85, 0.0, -0.72, -1.58, -3.25, -2.31, -0.82, 0.0, 0.0, 0.88, 2.84, 2.84, 2.84, -6.34, -6.34, -6.34, -6.06, -6.35, -6.35, -6.35, -6.35, -6.35, -6.35, -6.34, -6.34, -6.61, -6.71, -6.71, -6.97, -6.97, -6.7, -6.96, -6.96, -6.7, -6.94, -7.19, -6.92, -6.92, -6.9, -6.9, -6.9, -6.46, -6.46, -6.5, -5.62, -5.2, -5.26, -4.63, -4.66, -4.24, -4.24, -4.0, -3.97, -4.16, -4.63, -4.63, -5.04, -5.26, -5.26, -5.26, -5.26, -5.26, -5.69, -5.26, -4.63, -4.03, -4.08, -3.22, -3.12, -3.15, -2.86, -2.51, -2.23, -1.84, -1.13, -1.13, -0.61, -0.53, -1.19, -1.41, -1.23, -1.23, -1.6, -1.72, -1.72, -1.63, -1.73, -1.65, -0.84, -0.8, 0.0, 0.78, 2.39, 2.41, 3.87, 4.66, 6.42, 5.73, 3.58, 0.71, -1.36, -4.5, -4.5, -2.64, -0.81, 0.0, 0.0, 1.49, 3.6, 3.6, 3.6, -6.34, -6.34, -6.34, -6.06, -6.35, -6.35, -6.35, -6.35, -6.35, -6.35, -6.34, -6.34, -6.61, -6.71, -6.71, -6.97, -6.97, -6.97, -6.7, -6.96, -6.96, -6.94, -6.94, -6.92, -6.92, -7.16, -6.9, -6.9, -6.46, -6.46, -6.5, -5.62, -5.64, -5.02, -5.29, -4.66, -4.24, -4.03, -4.0, -4.0, -3.97, -3.97, -4.63, -4.4, -5.04, -5.26, -5.02, -5.02, -5.26, -5.26, -5.29, -5.06, -4.44, -4.45, -3.84, -3.47, -3.49, -3.49, -2.86, -2.48, -1.8, -1.6, -1.13, -1.16, -1.2, -2.0, -1.83, -0.88, -0.82, -1.72, -1.63, -1.73, -1.73, -1.73, -1.65, -1.65, -0.84, 0.0, 0.77, 1.68, 1.62, 2.34, 4.65, 5.45, 5.64, 3.58, 0.0, -2.82, -5.0, -3.72, -2.07, -0.87, 0.0, 0.79, 2.53, 4.47, 4.47, 4.47, -6.34, -6.34, -6.34, -6.06, -6.35, -6.35, -6.35, -6.35, -6.35, -6.35, -6.34, -6.34, -6.61, -6.98, -6.71, -6.97, -6.97, -6.97, -6.7, -6.96, -6.96, -6.94, -6.94, -7.19, -6.92, -7.16, -7.16, -6.9, -6.9, -6.25, -6.5, -5.86, -5.64, -5.23, -5.04, -4.42, -4.44, -4.03, -4.0, -4.0, -3.97, -3.97, -4.16, -4.63, -4.6, -5.04, -5.26, -5.23, -5.02, -5.26, -5.29, -5.32, -5.08, -4.45, -4.05, -3.84, -3.85, -3.47, -3.49, -2.86, -2.22, -1.8, -1.6, -1.84, -1.84, -2.95, -1.66, -1.66, -1.7, -2.6, -2.64, -2.51, -2.67, -2.4, -1.55, -1.55, -0.84, 0.0, 0.0, 0.77, 1.54, 1.62, 3.02, 3.82, 3.1, 1.38, 0.69, -0.72, -2.15, -1.9, 0.0, 0.0, 0.0, 1.74, 3.47, 5.75, 5.75, 5.75, -6.34, -6.34, -6.34, -6.34, -6.35, -6.35, -6.35, -6.08, -6.35, -6.35, -6.63, -6.34, -6.34, -6.98, -6.71, -6.71, -6.97, -6.97, -6.97, -6.96, -6.96, -6.96, -6.94, -7.19, -6.92, -6.92, -7.16, -7.16, -6.9, -6.5, -6.27, -6.29, -5.64, -5.67, -5.04, -4.63, -4.44, -4.0, -4.0, -4.0, -3.97, -3.97, -4.16, -4.16, -4.63, -4.6, -5.26, -5.02, -5.02, -5.26, -5.29, -5.06, -5.32, -4.69, -4.71, -3.83, -3.84, -3.85, -3.47, -2.84, -2.44, -2.22, -1.8, -1.8, -2.23, -2.23, -2.53, -2.0, -2.53, -3.35, -3.22, -3.11, -3.2, -4.03, -2.4, -1.55, -0.79, 0.0, 0.0, 0.0, 0.77, 0.81, 1.54, 0.8, 0.72, 0.7, 0.71, 0.0, 0.0, 0.0, 0.0, 0.71, 1.2, 2.97, 5.31, 6.79, 6.79, 6.79, -6.34, -6.34, -6.34, -6.34, -6.06, -6.35, -6.35, -6.35, -6.35, -6.35, -6.63, -6.34, -6.7, -6.98, -6.71, -6.71, -6.97, -6.97, -6.97, -6.7, -6.96, -6.96, -6.94, -6.94, -7.19, -6.92, -6.92, -7.16, -7.16, -6.92, -6.27, -6.29, -5.89, -5.67, -5.26, -5.06, -4.66, -4.44, -4.0, -4.2, -3.97, -4.16, -4.16, -3.94, -4.16, -4.4, -4.6, -4.8, -5.02, -5.26, -5.69, -5.7, -5.46, -5.08, -4.69, -4.46, -4.08, -4.1, -3.47, -3.49, -2.86, -2.22, -2.48, -2.23, -2.48, -2.86, -2.99, -2.76, -2.53, -2.53, -3.35, -4.29, -5.06, -4.95, -3.4, -3.4, -2.51, -0.89, -0.79, -0.84, 0.0, 0.0, 0.0, 0.0, 0.0, 0.0, 0.0, 0.0, 0.0, 0.0, 1.26, 2.0, 2.68, 5.29, 7.21, 7.89, 7.89, 7.89, -6.34, -6.34, -6.34, -6.34, -6.06, -6.35, -6.35, -6.35, -6.35, -6.35, -6.35, -6.34, -6.7, -6.98, -6.98, -6.71, -6.71, -6.97, -6.97, -6.97, -6.96, -6.96, -6.94, -6.94, -7.19, -6.92, -6.92, -6.92, -6.92, -6.92, -6.53, -6.29, -5.89, -5.67, -5.26, -5.06, -4.66, -4.44, -4.0, -4.2, -3.97, -4.63, -4.4, -4.4, -3.94, -3.94, -4.6, -4.6, -4.6, -5.26, -5.26, -5.7, -5.72, -5.08, -5.09, -4.45, -4.05, -3.84, -3.85, -3.22, -2.84, -2.86, -2.22, -2.48, -2.86, -2.86, -2.84, -2.4, -0.88, -0.88, -2.29, -3.33, -4.29, -4.01, -5.15, -4.65, -3.55, -2.35, -1.73, -1.55, -0.84, 0.0, 0.0, 0.0, 0.0, 0.0, -0.71, -1.44, -0.7, 0.95, 1.79, 3.13, 5.09, 6.94, 8.3, 8.4, 8.4, 8.4, -6.34, -6.34, -6.34, -6.34, -6.06, -6.35, -6.35, -6.35, -6.35, -6.35, -6.35, -6.63, -6.7, -6.7, -6.98, -6.98, -6.71, -6.97, -6.97, -6.97, -6.96, -6.96, -6.96, -6.94, -7.19, -7.19, -6.92, -6.92, -6.92, -6.92, -6.53, -6.56, -5.89, -5.92, -5.26, -5.06, -4.66, -4.44, -4.44, -4.66, -4.63, -4.63, -4.6, -4.6, -4.6, -4.6, -4.6, -4.6, -4.6, -4.6, -5.04, -5.7, -5.46, -5.72, -5.08, -4.69, -4.71, -4.08, -4.1, -3.47, -3.22, -2.86, -2.6, -2.6, -2.86, -3.12, -2.84, -2.4, -0.88, -0.88, -1.72, -1.72, -1.72, -1.72, -2.6, -3.47, -5.06, -4.16, -3.2, -2.51, -1.73, -0.84, 0.82, 1.57, 2.35, 1.54, 0.0, -0.99, 1.34, 2.54, 3.74, 5.6, 7.35, 8.0, 8.82, 7.89, 7.89, 7.89, -6.34, -6.34, -6.34, -6.34, -6.34, -6.35, -6.35, -6.35, -6.64, -6.35, -6.35, -6.63, -6.7, -6.7, -6.98, -6.98, -6.71, -6.97, -6.97, -6.97, -7.24, -6.96, -6.96, -6.94, -6.94, -7.19, -7.19, -6.92, -6.92, -7.19, -6.53, -6.31, -6.07, -5.92, -5.69, -5.06, -5.08, -4.44, -4.44, -4.66, -4.63, -4.63, -4.6, -4.6, -4.6, -4.6, -4.6, -4.6, -4.6, -4.6, -4.6, -5.7, -5.7, -5.72, -5.46, -5.09, -5.09, -4.46, -4.08, -3.85, -3.49, -3.49, -2.86, -2.86, -2.86, -2.86, -3.12, -2.61, -1.76, -1.7, -0.96, -0.82, -0.78, 0.0, 0.0, -0.83, -1.63, -4.16, -3.4, -2.67, -1.73, 0.0, 0.0, 1.64, 3.14, 2.34, 0.69, 1.6, 3.2, 4.46, 6.07, 7.28, 8.24, 8.55, 8.55, 8.55, 8.55, 8.55, -6.34, -6.34, -6.34, -6.34, -6.34, -6.35, -6.35, -6.35, -6.35, -6.35, -6.35, -6.35, -6.98, -6.7, -6.98, -6.98, -6.98, -6.97, -6.97, -6.97, -6.97, -6.96, -6.96, -7.22, -6.94, -6.94, -7.19, -7.19, -7.19, -6.94, -6.7, -6.31, -6.33, -5.69, -5.95, -5.06, -5.08, -4.66, -4.66, -4.66, -4.63, -4.63, -4.6, -4.6, -4.6, -4.6, -4.6, -4.6, -4.6, -4.4, -4.63, -5.7, -5.98, -5.72, -5.46, -5.72, -5.09, -5.1, -4.46, -4.47, -4.12, -3.49, -3.49, -2.86, -2.86, -2.86, -2.86, -2.86, -2.22, -1.99, -1.7, -1.7, -0.96, -0.88, -0.82, -0.83, -1.73, -3.2, -3.4, -3.09, -1.55, -0.84, 0.0, 0.79, 1.6, 2.37, 1.4, 2.68, 4.4, 5.72, 6.98, 7.59, 7.92, 8.05, 8.55, 8.55, 8.55, 8.55, -6.34, -6.34, -6.34, -6.34, -6.34, -6.35, -6.35, -6.35, -6.35, -6.35, -6.35, -6.35, -6.98, -6.7, -6.98, -6.98, -6.98, -6.71, -6.97, -6.97, -6.97, -7.24, -6.96, -7.6, -7.6, -6.94, -6.94, -6.94, -6.94, -6.94, -6.96, -6.31, -6.33, -5.69, -5.7, -5.06, -5.08, -5.08, -4.66, -4.66, -4.63, -4.63, -4.6, -4.6, -4.6, -4.6, -4.6, -4.6, -4.6, -4.6, -4.63, -5.72, -6.35, -6.08, -6.0, -5.72, -5.45, -5.36, -5.1, -5.1, -4.47, -3.84, -3.49, -3.49, -2.86, -2.86, -2.86, -2.86, -2.48, -2.76, -2.76, -1.7, -0.81, -0.81, -1.84, -2.47, -2.64, -3.2, -3.4, -2.67, -2.51, -1.65, -0.8, 0.0, 0.0, 0.78, 0.79, 2.2, 4.8, 6.35, 6.98, 7.31, 7.59, 8.05, 8.4, 8.55, 8.55, 8.55, -6.34, -6.34, -6.34, -6.34, -6.34, -6.35, -6.35, -6.35, -6.35, -6.64, -6.35, -6.35, -6.98, -6.7, -6.7, -6.98, -6.98, -6.98, -6.71, -6.97, -6.97, -6.97, -7.24, -6.96, -7.6, -7.22, -6.94, -6.94, -6.94, -6.94, -6.96, -6.31, -6.33, -5.69, -5.7, -5.46, -5.32, -5.08, -5.08, -5.08, -4.63, -4.84, -4.6, -4.6, -4.6, -4.6, -4.6, -4.6, -4.6, -4.6, -4.63, -5.72, -5.72, -6.08, -6.35, -5.72, -5.72, -5.72, -5.44, -5.1, -5.08, -4.75, -4.12, -3.83, -3.49, -2.86, -2.6, -2.86, -2.86, -2.22, -1.76, -0.81, 0.0, -0.81, -1.7, -1.72, -2.64, -2.35, -2.51, -2.51, -1.73, -1.65, -0.85, -0.82, -0.77, 0.0, 0.0, 1.55, 4.19, 5.64, 6.28, 6.58, 7.31, 8.06, 8.05, 8.4, 8.4, 8.4, -6.34, -6.34, -6.34, -6.34, -6.34, -6.35, -6.35, -6.35, -6.35, -6.35, -6.35, -6.35, -6.35, -6.98, -6.7, -6.98, -6.98, -6.98, -6.98, -6.97, -6.97, -6.97, -7.24, -6.96, -7.33, -7.22, -7.22, -6.94, -6.94, -6.94, -6.96, -6.58, -6.33, -5.95, -5.7, -5.72, -5.72, -5.08, -5.08, -5.08, -5.06, -5.29, -5.04, -5.04, -5.26, -5.04, -5.04, -5.04, -5.04, -4.6, -4.63, -5.72, -5.72, -6.35, -6.35, -6.34, -5.72, -5.72, -5.71, -5.71, -5.38, -5.06, -4.45, -3.83, -3.49, -3.2, -2.86, -2.86, -2.48, -2.22, -1.11, -0.81, 0.0, 0.0, 0.0, -0.88, -0.89, -1.63, -1.63, -1.63, -1.55, -1.75, -1.67, -1.62, -0.83, 0.0, 0.0, 0.0, 2.3, 3.51, 5.04, 5.52, 6.58, 6.98, 7.69, 7.67, 7.67, 7.67, -6.34, -6.34, -6.34, -6.34, -6.34, -6.34, -6.35, -6.35, -6.35, -6.35, -6.64, -6.35, -6.35, -6.98, -6.7, -6.98, -6.98, -6.98, -6.98, -6.98, -6.97, -6.97, -6.97, -7.24, -6.96, -6.96, -7.22, -7.22, -7.22, -6.96, -6.96, -6.33, -6.08, -5.95, -5.7, -5.72, -5.72, -5.46, -5.08, -5.32, -5.06, -5.29, -5.04, -5.26, -5.26, -5.26, -5.04, -5.04, -5.04, -5.29, -5.06, -5.72, -5.72, -6.35, -6.06, -6.34, -6.04, -6.01, -5.71, -5.41, -5.69, -5.37, -4.45, -4.43, -4.11, -3.49, -3.48, -2.86, -2.86, -2.23, -1.8, -0.59, 0.0, 0.0, 0.0, -0.96, -0.88, -0.89, -0.89, -1.63, -1.73, -2.54, -2.44, -2.28, -1.58, -0.77, 0.0, 0.0, -0.0, 0.8, 2.47, 4.07, 5.04, 5.59, 6.68, 7.07, 7.07, 7.07, -6.34, -6.34, -6.34, -6.34, -6.34, -6.34, -6.35, -6.35, -6.35, -6.35, -6.64, -6.35, -6.35, -6.98, -6.7, -6.98, -6.98, -6.98, -6.98, -6.98, -6.97, -6.97, -6.97, -7.24, -6.96, -6.96, -7.22, -7.22, -7.22, -6.96, -6.96, -6.33, -6.08, -5.95, -5.7, -5.72, -5.72, -5.46, -5.08, -5.32, -5.06, -5.29, -5.04, -5.26, -5.26, -5.26, -5.04, -5.04, -5.04, -5.29, -5.06, -5.72, -5.72, -6.35, -6.06, -6.34, -6.04, -6.01, -5.71, -5.41, -5.69, -5.37, -4.45, -4.43, -4.11, -3.49, -3.48, -2.86, -2.86, -2.23, -1.8, -0.59, 0.0, 0.0, 0.0, -0.96, -0.82, -0.89, -0.89, -1.63, -1.73, -2.54, -2.44, -2.47, -1.56, -0.8, 0.0, 0.0, -0.82, -0.85, 0.84, 2.35, 4.2, 5.76, 6.32, 6.39, 6.39, 6.39]}]